Dew Point Data


Current

Temp 50.0 F. Dew Point 48.9 F.


Dew Point Comfort Scale

dewpoints

Date, Time Temperature Dew Point
Sun Jul 12 01:08:05 2020 79.0 F. 73.9 F.
Sun Jul 12 02:08:04 2020 77.0 F. 72.0 F.
Sun Jul 12 03:08:05 2020 79.0 F. 73.0 F.
Sun Jul 12 04:08:05 2020 76.0 F. 73.0 F.
Sun Jul 12 05:08:05 2020 76.0 F. 72.0 F.
Sun Jul 12 06:08:04 2020 76.0 F. 72.0 F.
Sun Jul 12 07:08:05 2020 73.0 F. 68.0 F.
Sun Jul 12 08:08:05 2020 74.0 F. 68.0 F.
Sun Jul 12 09:08:05 2020 75.0 F. 66.9 F.
Sun Jul 12 10:08:04 2020 78.0 F. 69.1 F.
Sun Jul 12 11:08:05 2020 79.0 F. 70.0 F.
Sun Jul 12 12:08:04 2020 79.0 F. 70.0 F.
Sun Jul 12 13:08:04 2020 84.0 F. 71.1 F.
Sun Jul 12 14:08:04 2020 84.0 F. 71.1 F.
Sun Jul 12 15:08:04 2020 86.0 F. 66.9 F.
Sun Jul 12 16:08:05 2020 86.0 F. 66.9 F.
Sun Jul 12 17:08:04 2020 87.0 F. 64.9 F.
Sun Jul 12 18:08:10 2020 84.0 F. 64.9 F.
Sun Jul 12 19:08:05 2020 85.0 F. 64.0 F.
Sun Jul 12 20:08:05 2020 85.0 F. 64.0 F.
Sun Jul 12 21:08:05 2020 81.0 F. 66.0 F.
Sun Jul 12 22:08:05 2020 75.0 F. 66.0 F.
Sun Jul 12 23:08:05 2020 73.0 F. 66.9 F.
Mon Jul 13 00:08:05 2020 71.0 F. 66.9 F.
Mon Jul 13 01:08:04 2020 72.0 F. 66.9 F.
Mon Jul 13 02:08:05 2020 72.0 F. 66.9 F.
Mon Jul 13 03:08:04 2020 70.0 F. 66.0 F.
Mon Jul 13 04:08:05 2020 69.0 F. 66.0 F.
Mon Jul 13 05:08:05 2020 69.0 F. 66.0 F.
Mon Jul 13 06:08:04 2020 67.0 F. 64.9 F.
Mon Jul 13 07:08:05 2020 70.0 F. 66.9 F.
Mon Jul 13 08:08:04 2020 73.0 F. 66.9 F.
Mon Jul 13 09:08:05 2020 75.0 F. 66.9 F.
Mon Jul 13 10:08:05 2020 78.0 F. 68.0 F.
Mon Jul 13 11:08:05 2020 78.0 F. 68.0 F.
Mon Jul 13 12:08:05 2020 82.0 F. 64.0 F.
Mon Jul 13 13:08:06 2020 83.0 F. 61.0 F.
Mon Jul 13 14:08:04 2020 86.0 F. 62.1 F.
Mon Jul 13 15:08:05 2020 87.0 F. 61.0 F.
Mon Jul 13 16:08:04 2020 86.0 F. 62.1 F.
Mon Jul 13 17:08:05 2020 86.0 F. 64.0 F.
Mon Jul 13 18:08:06 2020 86.0 F. 64.0 F.
Mon Jul 13 19:08:07 2020 86.0 F. 64.0 F.
Mon Jul 13 20:08:05 2020 80.0 F. 66.0 F.
Mon Jul 13 21:08:05 2020 75.0 F. 64.9 F.
Mon Jul 13 22:08:05 2020 71.0 F. 64.9 F.
Mon Jul 13 23:08:04 2020 71.0 F. 64.0 F.
Tue Jul 14 00:08:04 2020 68.0 F. 64.0 F.
Tue Jul 14 01:08:04 2020 69.0 F. 63.0 F.
Tue Jul 14 02:08:05 2020 67.0 F. 63.0 F.
Tue Jul 14 03:08:05 2020 67.0 F. 63.0 F.
Tue Jul 14 04:08:05 2020 66.0 F. 63.0 F.
Tue Jul 14 05:08:05 2020 66.0 F. 63.0 F.
Tue Jul 14 06:08:05 2020 66.0 F. 64.0 F.
Tue Jul 14 07:08:05 2020 67.0 F. 64.0 F.
Tue Jul 14 08:08:04 2020 73.0 F. 64.9 F.
Tue Jul 14 09:08:05 2020 77.0 F. 64.9 F.
Tue Jul 14 10:08:04 2020 77.0 F. 64.9 F.
Tue Jul 14 11:08:05 2020 77.0 F. 64.9 F.
Tue Jul 14 12:08:05 2020 85.0 F. 68.0 F.
Tue Jul 14 13:08:04 2020 87.0 F. 64.9 F.
Tue Jul 14 14:08:07 2020 89.0 F. 66.0 F.
Tue Jul 14 15:08:05 2020 89.0 F. 66.9 F.
Tue Jul 14 16:08:04 2020 89.0 F. 66.9 F.
Tue Jul 14 17:08:05 2020 89.0 F. 64.9 F.
Tue Jul 14 18:08:05 2020 89.0 F. 63.0 F.
Tue Jul 14 19:08:05 2020 87.0 F. 64.9 F.
Tue Jul 14 20:08:04 2020 82.0 F. 68.0 F.
Tue Jul 14 21:08:05 2020 82.0 F. 68.0 F.
Tue Jul 14 22:08:05 2020 78.0 F. 69.1 F.
Tue Jul 14 23:08:05 2020 75.0 F. 68.0 F.
Wed Jul 15 00:08:05 2020 75.0 F. 68.0 F.
Wed Jul 15 01:08:05 2020 72.0 F. 66.9 F.
Wed Jul 15 02:08:04 2020 72.0 F. 66.9 F.
Wed Jul 15 03:08:05 2020 72.0 F. 66.9 F.
Wed Jul 15 04:08:05 2020 70.0 F. 66.0 F.
Wed Jul 15 05:08:05 2020 70.0 F. 66.0 F.
Wed Jul 15 06:08:05 2020 72.0 F. 66.9 F.
Wed Jul 15 07:08:05 2020 72.0 F. 66.9 F.
Wed Jul 15 08:08:05 2020 74.0 F. 68.0 F.
Wed Jul 15 09:08:05 2020 81.0 F. 69.1 F.
Wed Jul 15 10:08:05 2020 81.0 F. 69.1 F.
Wed Jul 15 11:08:04 2020 87.0 F. 71.1 F.
Wed Jul 15 12:08:04 2020 88.0 F. 72.0 F.
Wed Jul 15 13:08:04 2020 88.0 F. 72.0 F.
Wed Jul 15 14:08:05 2020 89.0 F. 73.9 F.
Wed Jul 15 15:08:04 2020 90.0 F. 75.0 F.
Wed Jul 15 16:08:04 2020 90.0 F. 75.0 F.
Wed Jul 15 17:08:04 2020 92.0 F. 75.0 F.
Wed Jul 15 18:08:06 2020 89.0 F. 75.0 F.
Wed Jul 15 19:08:05 2020 89.0 F. 75.0 F.
Wed Jul 15 20:08:05 2020 87.0 F. 75.0 F.
Wed Jul 15 21:08:05 2020 77.0 F. 68.0 F.
Wed Jul 15 22:08:04 2020 77.0 F. 68.0 F.
Wed Jul 15 23:08:04 2020 75.0 F. 71.1 F.
Thu Jul 16 00:08:05 2020 75.0 F. 72.0 F.
Thu Jul 16 01:08:05 2020 75.0 F. 72.0 F.
Thu Jul 16 02:08:05 2020 75.0 F. 72.0 F.
Thu Jul 16 03:08:05 2020 75.0 F. 72.0 F.
Thu Jul 16 04:08:05 2020 73.0 F. 69.1 F.
Thu Jul 16 05:08:05 2020 72.0 F. 68.0 F.
Thu Jul 16 06:08:05 2020 70.0 F. 66.9 F.
Thu Jul 16 07:08:05 2020 71.0 F. 66.9 F.
Thu Jul 16 08:08:05 2020 71.0 F. 66.9 F.
Thu Jul 16 09:08:05 2020 72.0 F. 66.9 F.
Thu Jul 16 10:08:04 2020 73.0 F. 66.9 F.
Thu Jul 16 11:08:05 2020 76.0 F. 66.9 F.
Thu Jul 16 12:08:05 2020 76.0 F. 66.9 F.
Thu Jul 16 13:08:05 2020 80.0 F. 68.0 F.
Thu Jul 16 14:08:05 2020 82.0 F. 69.1 F.
Thu Jul 16 15:08:06 2020 84.0 F. 70.0 F.
Thu Jul 16 16:08:05 2020 86.0 F. 70.0 F.
Thu Jul 16 17:08:05 2020 85.0 F. 71.1 F.
Thu Jul 16 18:08:05 2020 85.0 F. 71.1 F.
Thu Jul 16 19:08:05 2020 85.0 F. 70.0 F.
Thu Jul 16 20:08:07 2020 85.0 F. 70.0 F.
Thu Jul 16 21:08:23 2020 78.0 F. 72.0 F.
Thu Jul 16 22:08:05 2020 75.0 F. 71.1 F.
Thu Jul 16 23:08:04 2020 75.0 F. 71.1 F.
Fri Jul 17 00:08:05 2020 75.0 F. 72.0 F.
Fri Jul 17 01:08:05 2020 75.0 F. 72.0 F.
Fri Jul 17 02:08:04 2020 75.0 F. 72.0 F.
Fri Jul 17 03:08:05 2020 76.0 F. 72.0 F.
Fri Jul 17 04:08:44 2020
Fri Jul 17 05:08:05 2020 75.0 F. 72.0 F.
Fri Jul 17 06:08:04 2020 75.0 F. 72.0 F.
Fri Jul 17 07:08:05 2020 76.0 F. 73.0 F.
Fri Jul 17 08:08:05 2020 77.0 F. 73.9 F.
Fri Jul 17 09:08:05 2020 80.0 F. 75.0 F.
Fri Jul 17 10:08:04 2020 81.0 F. 75.0 F.
Fri Jul 17 11:08:05 2020 86.0 F. 75.9 F.
Fri Jul 17 12:08:05 2020 86.0 F. 75.9 F.
Fri Jul 17 13:08:05 2020 91.0 F. 78.1 F.
Fri Jul 17 14:08:05 2020 92.0 F. 75.9 F.
Fri Jul 17 15:08:05 2020 92.0 F. 75.9 F.
Fri Jul 17 16:08:04 2020 81.0 F. 73.9 F.
Fri Jul 17 17:08:05 2020 81.0 F. 73.9 F.
Fri Jul 17 18:08:20 2020 75.0 F. 71.1 F.
Fri Jul 17 19:08:05 2020 76.0 F. 72.0 F.
Fri Jul 17 20:08:04 2020 76.0 F. 72.0 F.
Fri Jul 17 21:08:05 2020 74.0 F. 71.1 F.
Fri Jul 17 22:08:04 2020 74.0 F. 71.1 F.
Fri Jul 17 23:08:06 2020 73.0 F. 71.1 F.
Sat Jul 18 00:08:10 2020 73.0 F. 71.1 F.
Sat Jul 18 01:08:05 2020 73.0 F. 71.1 F.
Sat Jul 18 02:08:04 2020 74.0 F. 71.1 F.
Sat Jul 18 03:08:04 2020 74.0 F. 71.1 F.
Sat Jul 18 04:08:05 2020 75.0 F. 71.1 F.
Sat Jul 18 05:08:04 2020 75.0 F. 71.1 F.
Sat Jul 18 06:08:05 2020 75.0 F. 71.1 F.
Sat Jul 18 07:08:05 2020 75.0 F. 71.1 F.
Sat Jul 18 08:08:05 2020 76.0 F. 72.0 F.
Sat Jul 18 09:08:05 2020 76.0 F. 72.0 F.
Sat Jul 18 10:08:05 2020 77.0 F. 72.0 F.
Sat Jul 18 11:08:05 2020 80.0 F. 73.9 F.
Sat Jul 18 12:08:05 2020 85.0 F. 75.0 F.
Sat Jul 18 13:08:05 2020 89.0 F. 75.0 F.
Sat Jul 18 14:08:05 2020 91.0 F. 73.9 F.
Sat Jul 18 15:08:04 2020 91.0 F. 73.9 F.
Sat Jul 18 16:08:05 2020 91.0 F. 73.9 F.
Sat Jul 18 17:08:04 2020 90.0 F. 73.9 F.
Sat Jul 18 18:08:04 2020 90.0 F. 73.9 F.
Sat Jul 18 19:08:05 2020 90.0 F. 73.9 F.
Sat Jul 18 20:08:05 2020 85.0 F. 75.9 F.
Sat Jul 18 21:08:05 2020 81.0 F. 75.0 F.
Sat Jul 18 22:08:05 2020 80.0 F. 75.0 F.
Sat Jul 18 23:08:05 2020 79.0 F. 75.0 F.
Sun Jul 19 00:08:04 2020 79.0 F. 73.9 F.
Sun Jul 19 01:08:05 2020 77.0 F. 73.9 F.
Sun Jul 19 02:08:04 2020 77.0 F. 73.9 F.
Sun Jul 19 03:08:04 2020 77.0 F. 73.9 F.
Sun Jul 19 04:08:04 2020 77.0 F. 73.0 F.
Sun Jul 19 05:08:04 2020 78.0 F. 72.0 F.
Sun Jul 19 06:08:05 2020 77.0 F. 72.0 F.
Sun Jul 19 07:08:05 2020 79.0 F. 72.0 F.
Sun Jul 19 08:08:05 2020 82.0 F. 72.0 F.
Sun Jul 19 09:08:04 2020 85.0 F. 73.0 F.
Sun Jul 19 10:08:19 2020 85.0 F. 73.0 F.
Sun Jul 19 11:08:04 2020 89.0 F. 73.9 F.
Sun Jul 19 12:08:04 2020 89.0 F. 73.9 F.
Sun Jul 19 13:08:04 2020 90.0 F. 73.9 F.
Sun Jul 19 14:08:06 2020 92.0 F. 73.9 F.
Sun Jul 19 15:08:05 2020 91.0 F. 75.0 F.
Sun Jul 19 16:08:05 2020 92.0 F. 75.0 F.
Sun Jul 19 17:08:05 2020 92.0 F. 75.0 F.
Sun Jul 19 18:08:06 2020 91.0 F. 75.0 F.
Sun Jul 19 19:08:05 2020 89.0 F. 75.0 F.
Sun Jul 19 20:08:04 2020 32.0 F. 32.0 F.
Sun Jul 19 21:08:05 2020 32.0 F. 32.0 F.
Sun Jul 19 22:08:05 2020 83.0 F. 73.0 F.
Sun Jul 19 23:08:05 2020 83.0 F. 72.0 F.
Mon Jul 20 00:08:04 2020 77.0 F. 69.1 F.
Mon Jul 20 01:08:05 2020 77.0 F. 69.1 F.
Mon Jul 20 02:08:05 2020 76.0 F. 69.1 F.
Mon Jul 20 03:08:04 2020 75.0 F. 69.1 F.
Mon Jul 20 04:08:05 2020 75.0 F. 69.1 F.
Mon Jul 20 05:08:05 2020 74.0 F. 69.1 F.
Mon Jul 20 06:08:05 2020 73.0 F. 70.0 F.
Mon Jul 20 07:08:05 2020 73.0 F. 70.0 F.
Mon Jul 20 08:08:04 2020 77.0 F. 70.0 F.
Mon Jul 20 09:08:05 2020 77.0 F. 70.0 F.
Mon Jul 20 10:08:05 2020 84.0 F. 73.9 F.
Mon Jul 20 11:08:05 2020 85.0 F. 73.9 F.
Mon Jul 20 12:08:05 2020 85.0 F. 73.9 F.
Mon Jul 20 13:08:05 2020 89.0 F. 77.0 F.
Mon Jul 20 14:08:05 2020 76.0 F. 71.1 F.
Mon Jul 20 15:08:05 2020 76.0 F. 71.1 F.
Mon Jul 20 16:08:05 2020 76.0 F. 73.0 F.
Mon Jul 20 17:08:05 2020 77.0 F. 73.0 F.
Mon Jul 20 18:08:05 2020 77.0 F. 73.0 F.
Mon Jul 20 19:08:06 2020 77.0 F. 73.9 F.
Mon Jul 20 20:08:05 2020 77.0 F. 73.0 F.
Mon Jul 20 21:08:05 2020 75.0 F. 72.0 F.
Mon Jul 20 22:08:06 2020 74.0 F. 71.1 F.
Mon Jul 20 23:08:05 2020 73.0 F. 71.1 F.
Tue Jul 21 00:08:05 2020 73.0 F. 71.1 F.
Tue Jul 21 01:08:07 2020 72.0 F. 70.0 F.
Tue Jul 21 02:08:05 2020 72.0 F. 70.0 F.
Tue Jul 21 03:08:06 2020 74.0 F. 71.1 F.
Tue Jul 21 04:08:05 2020 74.0 F. 72.0 F.
Tue Jul 21 05:08:04 2020 74.0 F. 72.0 F.
Tue Jul 21 06:08:05 2020 72.0 F. 70.0 F.
Tue Jul 21 07:08:04 2020 72.0 F. 70.0 F.
Tue Jul 21 08:08:05 2020 78.0 F. 72.0 F.
Tue Jul 21 09:08:05 2020 80.0 F. 73.0 F.
Tue Jul 21 10:08:05 2020 80.0 F. 73.0 F.
Tue Jul 21 11:08:05 2020 83.0 F. 73.9 F.
Tue Jul 21 12:08:05 2020 88.0 F. 73.9 F.
Tue Jul 21 13:08:05 2020 88.0 F. 73.9 F.
Tue Jul 21 14:08:05 2020 90.0 F. 77.0 F.
Tue Jul 21 15:08:05 2020 91.0 F. 75.0 F.
Tue Jul 21 16:08:05 2020 75.0 F. 66.9 F.
Tue Jul 21 17:08:05 2020 80.0 F. 72.0 F.
Tue Jul 21 18:08:05 2020 80.0 F. 72.0 F.
Tue Jul 21 19:08:05 2020 82.0 F. 78.1 F.
Tue Jul 21 20:08:05 2020 81.0 F. 78.1 F.
Tue Jul 21 21:08:05 2020 81.0 F. 78.1 F.
Tue Jul 21 22:08:04 2020 78.0 F. 75.0 F.
Tue Jul 21 23:08:05 2020 77.0 F. 73.9 F.
Wed Jul 22 00:08:05 2020 76.0 F. 73.0 F.
Wed Jul 22 01:08:05 2020 75.0 F. 72.0 F.
Wed Jul 22 02:08:40 2020
Wed Jul 22 03:08:40 2020
Wed Jul 22 04:08:05 2020 74.0 F. 72.0 F.
Wed Jul 22 05:08:05 2020 74.0 F. 72.0 F.
Wed Jul 22 06:08:05 2020 73.0 F. 71.1 F.
Wed Jul 22 07:08:05 2020 73.0 F. 71.1 F.
Wed Jul 22 08:08:05 2020 78.0 F. 73.0 F.
Wed Jul 22 09:08:05 2020 80.0 F. 73.9 F.
Wed Jul 22 10:08:05 2020 82.0 F. 75.0 F.
Wed Jul 22 11:08:05 2020 84.0 F. 73.9 F.
Wed Jul 22 12:08:05 2020 84.0 F. 73.9 F.
Wed Jul 22 13:08:05 2020 86.0 F. 75.0 F.
Wed Jul 22 14:08:10 2020 87.0 F. 73.9 F.
Wed Jul 22 15:08:05 2020 84.0 F. 73.0 F.
Wed Jul 22 16:08:05 2020 76.0 F. 72.0 F.
Wed Jul 22 17:08:05 2020 75.0 F. 72.0 F.
Wed Jul 22 18:08:05 2020 76.0 F. 72.0 F.
Wed Jul 22 19:08:05 2020 78.0 F. 72.0 F.
Wed Jul 22 20:08:05 2020 76.0 F. 72.0 F.
Wed Jul 22 21:08:05 2020 76.0 F. 72.0 F.
Wed Jul 22 22:08:05 2020 75.0 F. 72.0 F.
Wed Jul 22 23:08:05 2020 74.0 F. 71.1 F.
Thu Jul 23 00:08:05 2020 74.0 F. 71.1 F.
Thu Jul 23 01:08:05 2020 73.0 F. 71.1 F.
Thu Jul 23 02:08:05 2020 73.0 F. 71.1 F.
Thu Jul 23 03:08:06 2020 72.0 F. 70.0 F.
Thu Jul 23 04:08:04 2020 73.0 F. 71.1 F.
Thu Jul 23 05:08:05 2020 73.0 F. 71.1 F.
Thu Jul 23 06:08:05 2020 72.0 F. 70.0 F.
Thu Jul 23 07:08:05 2020 72.0 F. 70.0 F.
Thu Jul 23 08:08:05 2020 73.0 F. 71.1 F.
Thu Jul 23 09:08:05 2020 79.0 F. 73.0 F.
Thu Jul 23 10:08:05 2020 82.0 F. 73.0 F.
Thu Jul 23 11:08:04 2020 84.0 F. 75.0 F.
Thu Jul 23 12:08:05 2020 84.0 F. 75.0 F.
Thu Jul 23 13:08:04 2020 88.0 F. 75.0 F.
Thu Jul 23 14:08:04 2020 89.0 F. 73.0 F.
Thu Jul 23 15:08:09 2020 89.0 F. 73.0 F.
Thu Jul 23 16:08:05 2020 76.0 F. 70.0 F.
Thu Jul 23 17:08:05 2020 74.0 F. 71.1 F.
Thu Jul 23 18:08:34 2020
Thu Jul 23 19:08:05 2020 78.0 F. 71.1 F.
Thu Jul 23 20:08:05 2020 77.0 F. 72.0 F.
Thu Jul 23 21:08:05 2020 73.0 F. 71.1 F.
Thu Jul 23 22:08:06 2020 73.0 F. 71.1 F.
Thu Jul 23 23:08:06 2020 73.0 F. 71.1 F.
Fri Jul 24 00:08:05 2020 73.0 F. 71.1 F.
Fri Jul 24 01:08:05 2020 71.0 F. 70.0 F.
Fri Jul 24 02:08:04 2020 71.0 F. 69.1 F.
Fri Jul 24 03:08:05 2020 71.0 F. 69.1 F.
Fri Jul 24 04:08:04 2020 71.0 F. 69.1 F.
Fri Jul 24 05:08:05 2020 71.0 F. 69.1 F.
Fri Jul 24 06:08:04 2020 71.0 F. 69.1 F.
Fri Jul 24 07:08:05 2020 71.0 F. 69.1 F.
Fri Jul 24 08:08:05 2020 71.0 F. 69.1 F.
Fri Jul 24 09:08:05 2020 79.0 F. 73.9 F.
Fri Jul 24 10:08:05 2020 79.0 F. 73.9 F.
Fri Jul 24 11:08:04 2020 85.0 F. 75.0 F.
Fri Jul 24 12:08:05 2020 85.0 F. 75.0 F.
Fri Jul 24 13:08:05 2020 90.0 F. 73.0 F.
Fri Jul 24 14:08:05 2020 90.0 F. 73.0 F.
Fri Jul 24 15:08:05 2020 92.0 F. 73.9 F.
Fri Jul 24 16:08:05 2020 90.0 F. 73.9 F.
Fri Jul 24 17:08:04 2020 91.0 F. 73.0 F.
Fri Jul 24 18:08:05 2020 90.0 F. 73.9 F.
Fri Jul 24 19:08:05 2020 85.0 F. 73.9 F.
Fri Jul 24 20:08:05 2020 82.0 F. 75.0 F.
Fri Jul 24 21:08:05 2020 79.0 F. 73.0 F.
Fri Jul 24 22:08:05 2020 76.0 F. 73.0 F.
Fri Jul 24 23:08:05 2020 76.0 F. 73.0 F.
Sat Jul 25 00:08:05 2020 75.0 F. 72.0 F.
Sat Jul 25 01:08:05 2020 74.0 F. 71.1 F.
Sat Jul 25 02:08:04 2020 74.0 F. 71.1 F.
Sat Jul 25 03:08:05 2020 73.0 F. 71.1 F.
Sat Jul 25 04:08:04 2020 73.0 F. 71.1 F.
Sat Jul 25 05:08:05 2020 72.0 F. 70.0 F.
Sat Jul 25 06:08:05 2020 72.0 F. 70.0 F.
Sat Jul 25 07:08:05 2020 73.0 F. 71.1 F.
Sat Jul 25 08:08:05 2020 76.0 F. 73.9 F.
Sat Jul 25 09:08:04 2020 76.0 F. 73.9 F.
Sat Jul 25 10:08:04 2020 84.0 F. 73.9 F.
Sat Jul 25 11:08:05 2020 86.0 F. 75.0 F.
Sat Jul 25 12:08:05 2020 88.0 F. 75.0 F.
Sat Jul 25 13:08:05 2020 88.0 F. 75.0 F.
Sat Jul 25 14:08:04 2020 91.0 F. 73.0 F.
Sat Jul 25 15:08:04 2020 82.0 F. 75.0 F.
Sat Jul 25 16:08:05 2020 82.0 F. 75.0 F.
Sat Jul 25 17:08:05 2020 90.0 F. 75.0 F.
Sat Jul 25 18:08:05 2020 86.0 F. 75.9 F.
Sat Jul 25 19:08:05 2020 85.0 F. 75.0 F.
Sat Jul 25 20:08:05 2020 81.0 F. 73.0 F.
Sat Jul 25 21:08:05 2020 78.0 F. 73.9 F.
Sat Jul 25 22:08:05 2020 77.0 F. 73.0 F.
Sat Jul 25 23:08:05 2020 77.0 F. 73.0 F.
Sun Jul 26 00:08:05 2020 77.0 F. 73.0 F.
Sun Jul 26 01:08:06 2020 76.0 F. 73.0 F.
Sun Jul 26 02:08:05 2020 75.0 F. 73.0 F.
Sun Jul 26 03:08:05 2020 75.0 F. 73.0 F.
Sun Jul 26 04:08:05 2020 74.0 F. 72.0 F.
Sun Jul 26 05:08:05 2020 74.0 F. 72.0 F.
Sun Jul 26 06:08:04 2020 74.0 F. 72.0 F.
Sun Jul 26 07:08:05 2020 74.0 F. 72.0 F.
Sun Jul 26 08:08:06 2020 75.0 F. 73.0 F.
Sun Jul 26 09:08:05 2020 83.0 F. 73.9 F.
Sun Jul 26 10:08:04 2020 86.0 F. 75.0 F.
Sun Jul 26 11:08:05 2020 86.0 F. 75.0 F.
Sun Jul 26 12:08:05 2020 88.0 F. 75.0 F.
Sun Jul 26 13:08:05 2020 89.0 F. 75.0 F.
Sun Jul 26 14:08:05 2020 88.0 F. 73.9 F.
Sun Jul 26 15:08:04 2020 89.0 F. 73.9 F.
Sun Jul 26 16:08:05 2020 89.0 F. 73.9 F.
Sun Jul 26 17:08:05 2020 90.0 F. 72.0 F.
Sun Jul 26 18:08:04 2020 89.0 F. 72.0 F.
Sun Jul 26 19:08:05 2020 89.0 F. 72.0 F.
Sun Jul 26 20:08:06 2020 85.0 F. 73.0 F.
Sun Jul 26 21:08:05 2020 82.0 F. 73.9 F.
Sun Jul 26 22:08:05 2020 80.0 F. 73.9 F.
Sun Jul 26 23:08:05 2020 79.0 F. 73.9 F.
Mon Jul 27 00:08:05 2020 78.0 F. 73.0 F.
Mon Jul 27 01:08:05 2020 77.0 F. 73.0 F.
Mon Jul 27 02:08:05 2020 78.0 F. 72.0 F.
Mon Jul 27 03:08:05 2020 76.0 F. 72.0 F.
Mon Jul 27 04:08:04 2020 77.0 F. 72.0 F.
Mon Jul 27 05:08:05 2020 76.0 F. 72.0 F.
Mon Jul 27 06:08:06 2020 76.0 F. 72.0 F.
Mon Jul 27 07:08:05 2020 79.0 F. 72.0 F.
Mon Jul 27 08:08:05 2020 82.0 F. 73.0 F.
Mon Jul 27 09:08:05 2020 84.0 F. 73.9 F.
Mon Jul 27 10:08:05 2020 86.0 F. 75.0 F.
Mon Jul 27 11:08:05 2020 85.0 F. 73.9 F.
Mon Jul 27 12:08:05 2020 86.0 F. 73.0 F.
Mon Jul 27 13:08:05 2020 86.0 F. 73.0 F.
Mon Jul 27 14:08:06 2020 88.0 F. 73.9 F.
Mon Jul 27 15:08:05 2020 87.0 F. 75.9 F.
Mon Jul 27 16:08:05 2020 88.0 F. 73.0 F.
Mon Jul 27 17:08:05 2020 89.0 F. 73.0 F.
Mon Jul 27 18:08:04 2020 89.0 F. 73.0 F.
Mon Jul 27 19:08:05 2020 85.0 F. 75.9 F.
Mon Jul 27 20:08:05 2020 73.0 F. 70.0 F.
Mon Jul 27 21:08:05 2020 74.0 F. 71.1 F.
Mon Jul 27 22:08:05 2020 74.0 F. 72.0 F.
Mon Jul 27 23:08:05 2020 73.0 F. 71.1 F.
Tue Jul 28 00:08:19 2020 73.0 F. 71.1 F.
Tue Jul 28 01:08:06 2020 73.0 F. 71.1 F.
Tue Jul 28 02:08:05 2020 73.0 F. 71.1 F.
Tue Jul 28 03:08:06 2020 73.0 F. 71.1 F.
Tue Jul 28 04:08:04 2020 73.0 F. 71.1 F.
Tue Jul 28 05:08:05 2020 74.0 F. 72.0 F.
Tue Jul 28 06:08:04 2020 74.0 F. 72.0 F.
Tue Jul 28 07:08:05 2020 74.0 F. 72.0 F.
Tue Jul 28 08:08:05 2020 76.0 F. 72.0 F.
Tue Jul 28 09:08:05 2020 75.0 F. 70.0 F.
Tue Jul 28 10:08:05 2020 73.0 F. 69.1 F.
Tue Jul 28 11:08:05 2020 72.0 F. 69.1 F.
Tue Jul 28 12:08:05 2020 77.0 F. 71.1 F.
Tue Jul 28 13:08:05 2020 77.0 F. 71.1 F.
Tue Jul 28 14:08:05 2020 84.0 F. 70.0 F.
Tue Jul 28 15:08:05 2020 84.0 F. 72.0 F.
Tue Jul 28 16:08:05 2020 84.0 F. 72.0 F.
Tue Jul 28 17:08:04 2020 86.0 F. 72.0 F.
Tue Jul 28 18:08:05 2020 87.0 F. 71.1 F.
Tue Jul 28 19:08:05 2020 86.0 F. 71.1 F.
Tue Jul 28 20:08:04 2020 82.0 F. 73.9 F.
Tue Jul 28 21:08:05 2020 77.0 F. 73.0 F.
Tue Jul 28 22:08:05 2020 75.0 F. 72.0 F.
Tue Jul 28 23:08:05 2020 75.0 F. 72.0 F.
Wed Jul 29 00:08:04 2020 75.0 F. 72.0 F.
Wed Jul 29 01:08:05 2020 74.0 F. 72.0 F.
Wed Jul 29 02:08:05 2020 74.0 F. 71.1 F.
Wed Jul 29 03:08:05 2020 73.0 F. 71.1 F.
Wed Jul 29 04:08:05 2020 73.0 F. 71.1 F.
Wed Jul 29 05:08:04 2020 73.0 F. 71.1 F.
Wed Jul 29 06:08:05 2020 72.0 F. 70.0 F.
Wed Jul 29 07:08:05 2020 74.0 F. 71.1 F.
Wed Jul 29 08:08:05 2020 78.0 F. 73.9 F.
Wed Jul 29 09:08:05 2020 82.0 F. 75.0 F.
Wed Jul 29 10:08:05 2020 85.0 F. 75.9 F.
Wed Jul 29 11:08:40 2020
Wed Jul 29 12:08:15 2020 88.0 F. 77.0 F.
Wed Jul 29 13:08:15 2020 88.0 F. 77.0 F.
Wed Jul 29 14:08:15 2020 83.0 F. 75.0 F.
Wed Jul 29 15:08:15 2020 83.0 F. 75.0 F.
Wed Jul 29 16:08:15 2020 78.0 F. 73.0 F.
Wed Jul 29 17:08:14 2020 78.0 F. 75.0 F.
Wed Jul 29 18:08:15 2020 79.0 F. 75.0 F.
Wed Jul 29 19:08:15 2020 79.0 F. 75.0 F.
Wed Jul 29 20:08:15 2020 79.0 F. 75.0 F.
Wed Jul 29 21:08:15 2020 77.0 F. 73.9 F.
Wed Jul 29 22:08:15 2020 77.0 F. 73.9 F.
Wed Jul 29 23:08:15 2020 77.0 F. 73.9 F.
Thu Jul 30 00:08:15 2020 77.0 F. 73.9 F.
Thu Jul 30 01:08:15 2020 77.0 F. 75.0 F.
Thu Jul 30 02:08:15 2020 77.0 F. 75.0 F.
Thu Jul 30 03:08:15 2020 76.0 F. 73.9 F.
Thu Jul 30 04:08:15 2020 77.0 F. 75.0 F.
Thu Jul 30 05:08:15 2020 77.0 F. 75.0 F.
Thu Jul 30 06:08:17 2020 76.0 F. 73.0 F.
Thu Jul 30 07:08:15 2020 75.0 F. 73.0 F.
Thu Jul 30 08:08:14 2020 75.0 F. 72.0 F.
Thu Jul 30 09:08:14 2020 77.0 F. 73.0 F.
Thu Jul 30 10:08:15 2020 77.0 F. 73.0 F.
Thu Jul 30 11:08:14 2020 79.0 F. 73.9 F.
Thu Jul 30 12:08:14 2020 83.0 F. 73.9 F.
Thu Jul 30 13:08:15 2020 85.0 F. 73.9 F.
Thu Jul 30 14:08:15 2020 88.0 F. 75.9 F.
Thu Jul 30 15:08:14 2020 88.0 F. 75.0 F.
Thu Jul 30 16:08:14 2020 87.0 F. 73.9 F.
Thu Jul 30 17:08:15 2020 88.0 F. 73.9 F.
Thu Jul 30 18:08:15 2020 88.0 F. 73.9 F.
Thu Jul 30 19:08:15 2020 84.0 F. 73.9 F.
Thu Jul 30 20:08:15 2020 76.0 F. 73.0 F.
Thu Jul 30 21:08:15 2020 75.0 F. 73.0 F.
Thu Jul 30 22:08:15 2020 76.0 F. 73.0 F.
Thu Jul 30 23:08:15 2020 75.0 F. 73.0 F.
Fri Jul 31 00:08:14 2020 76.0 F. 73.0 F.
Fri Jul 31 01:08:14 2020 76.0 F. 73.0 F.
Fri Jul 31 02:08:14 2020 74.0 F. 72.0 F.
Fri Jul 31 03:08:15 2020 74.0 F. 72.0 F.
Fri Jul 31 04:08:15 2020 74.0 F. 71.1 F.
Fri Jul 31 05:08:15 2020 73.0 F. 71.1 F.
Fri Jul 31 06:08:15 2020 73.0 F. 71.1 F.
Fri Jul 31 07:08:14 2020 73.0 F. 71.1 F.
Fri Jul 31 08:08:15 2020 73.0 F. 71.1 F.
Fri Jul 31 09:08:14 2020 73.0 F. 70.0 F.
Fri Jul 31 10:08:15 2020 74.0 F. 71.1 F.
Fri Jul 31 11:08:15 2020 75.0 F. 71.1 F.
Fri Jul 31 12:08:15 2020 75.0 F. 71.1 F.
Fri Jul 31 13:08:15 2020 75.0 F. 71.1 F.
Fri Jul 31 14:08:52 2020
Fri Jul 31 15:08:14 2020 80.0 F. 72.0 F.
Fri Jul 31 16:08:15 2020 80.0 F. 73.0 F.
Fri Jul 31 17:08:06 2020 78.0 F. 72.0 F.
Fri Jul 31 18:08:04 2020 78.0 F. 72.0 F.
Fri Jul 31 19:08:04 2020 73.0 F. 69.1 F.
Fri Jul 31 20:08:05 2020 73.0 F. 70.0 F.
Fri Jul 31 21:08:04 2020 73.0 F. 70.0 F.
Fri Jul 31 22:08:05 2020 73.0 F. 70.0 F.
Fri Jul 31 23:08:04 2020 72.0 F. 70.0 F.
Sat Aug 1 00:08:04 2020 72.0 F. 70.0 F.
Sat Aug 1 01:08:04 2020 72.0 F. 70.0 F.
Sat Aug 1 02:08:04 2020 72.0 F. 70.0 F.
Sat Aug 1 03:08:04 2020 71.0 F. 69.1 F.
Sat Aug 1 04:08:04 2020 71.0 F. 69.1 F.
Sat Aug 1 05:08:05 2020 71.0 F. 69.1 F.
Sat Aug 1 06:08:04 2020 71.0 F. 69.1 F.
Sat Aug 1 07:08:05 2020 70.0 F. 68.0 F.
Sat Aug 1 08:08:05 2020 69.0 F. 66.9 F.
Sat Aug 1 09:08:05 2020 69.0 F. 66.9 F.
Sat Aug 1 10:08:04 2020 67.0 F. 64.9 F.
Sat Aug 1 11:08:05 2020 68.0 F. 66.0 F.
Sat Aug 1 12:08:05 2020 68.0 F. 66.0 F.
Sat Aug 1 13:08:05 2020 68.0 F. 64.9 F.
Sat Aug 1 14:08:05 2020 68.0 F. 64.9 F.
Sat Aug 1 16:08:08 2020 69.0 F. 64.0 F.
Sat Aug 1 17:08:05 2020 70.0 F. 66.0 F.
Sat Aug 1 18:08:05 2020 70.0 F. 66.0 F.
Sat Aug 1 19:08:04 2020 71.0 F. 66.9 F.
Sat Aug 1 20:08:05 2020 71.0 F. 66.9 F.
Sat Aug 1 21:08:09 2020 71.0 F. 66.9 F.
Sat Aug 1 22:08:05 2020 67.0 F. 64.9 F.
Sat Aug 1 23:08:04 2020 67.0 F. 64.9 F.
Sun Aug 2 00:08:05 2020 66.0 F. 64.0 F.
Sun Aug 2 01:08:05 2020 65.0 F. 63.0 F.
Sun Aug 2 02:08:05 2020 64.0 F. 62.1 F.
Sun Aug 2 03:08:05 2020 64.0 F. 62.1 F.
Sun Aug 2 04:08:05 2020 65.0 F. 63.0 F.
Sun Aug 2 05:08:05 2020 65.0 F. 62.1 F.
Sun Aug 2 06:08:06 2020 65.0 F. 62.1 F.
Sun Aug 2 07:08:04 2020 65.0 F. 63.0 F.
Sun Aug 2 08:08:05 2020 70.0 F. 64.9 F.
Sun Aug 2 09:08:04 2020 74.0 F. 66.0 F.
Sun Aug 2 10:08:05 2020 77.0 F. 66.9 F.
Sun Aug 2 11:08:04 2020 78.0 F. 64.9 F.
Sun Aug 2 12:08:05 2020 78.0 F. 64.9 F.
Sun Aug 2 13:08:05 2020 77.0 F. 70.0 F.
Sun Aug 2 14:08:05 2020 75.0 F. 69.1 F.
Sun Aug 2 15:08:05 2020 75.0 F. 69.1 F.
Sun Aug 2 16:08:05 2020 77.0 F. 68.0 F.
Sun Aug 2 17:08:05 2020 76.0 F. 68.0 F.
Sun Aug 2 18:08:05 2020 76.0 F. 68.0 F.
Sun Aug 2 19:08:04 2020 75.0 F. 68.0 F.
Sun Aug 2 20:08:04 2020 72.0 F. 68.0 F.
Sun Aug 2 21:08:05 2020 71.0 F. 68.0 F.
Sun Aug 2 22:08:05 2020 69.0 F. 66.0 F.
Sun Aug 2 23:08:05 2020 68.0 F. 66.0 F.
Mon Aug 3 00:08:05 2020 70.0 F. 66.9 F.
Mon Aug 3 01:08:06 2020 69.0 F. 66.9 F.
Mon Aug 3 02:08:04 2020 69.0 F. 66.9 F.
Mon Aug 3 03:08:05 2020 70.0 F. 68.0 F.
Mon Aug 3 04:08:04 2020 69.0 F. 66.9 F.
Mon Aug 3 05:08:05 2020 68.0 F. 66.0 F.
Mon Aug 3 06:08:05 2020 68.0 F. 66.0 F.
Mon Aug 3 07:08:05 2020 67.0 F. 64.9 F.
Mon Aug 3 08:08:05 2020 67.0 F. 66.0 F.
Mon Aug 3 09:08:04 2020 74.0 F. 69.1 F.
Mon Aug 3 10:08:05 2020 78.0 F. 69.1 F.
Mon Aug 3 11:08:05 2020 79.0 F. 69.1 F.
Mon Aug 3 12:08:04 2020 81.0 F. 68.0 F.
Mon Aug 3 13:08:05 2020 83.0 F. 69.1 F.
Mon Aug 3 14:08:06 2020 83.0 F. 69.1 F.
Mon Aug 3 15:08:04 2020 83.0 F. 69.1 F.
Mon Aug 3 16:08:07 2020 75.0 F. 69.1 F.
Mon Aug 3 17:08:05 2020 75.0 F. 69.1 F.
Mon Aug 3 18:08:05 2020 76.0 F. 69.1 F.
Mon Aug 3 19:08:04 2020 76.0 F. 66.9 F.
Mon Aug 3 20:08:04 2020 74.0 F. 66.9 F.
Mon Aug 3 21:08:05 2020 73.0 F. 66.9 F.
Mon Aug 3 22:08:04 2020 71.0 F. 64.9 F.
Mon Aug 3 23:08:05 2020 71.0 F. 64.9 F.
Tue Aug 4 00:08:05 2020 67.0 F. 64.0 F.
Tue Aug 4 01:08:04 2020 67.0 F. 63.0 F.
Tue Aug 4 02:08:05 2020 65.0 F. 63.0 F.
Tue Aug 4 03:08:05 2020 65.0 F. 63.0 F.
Tue Aug 4 04:08:05 2020 66.0 F. 63.0 F.
Tue Aug 4 05:08:05 2020 64.0 F. 62.1 F.
Tue Aug 4 06:08:05 2020 64.0 F. 62.1 F.
Tue Aug 4 07:08:04 2020 63.0 F. 60.1 F.
Tue Aug 4 08:08:04 2020 64.0 F. 61.0 F.
Tue Aug 4 09:08:05 2020 64.0 F. 61.0 F.
Tue Aug 4 10:08:04 2020 65.0 F. 61.0 F.
Tue Aug 4 11:08:05 2020 67.0 F. 62.1 F.
Tue Aug 4 12:08:04 2020 73.0 F. 62.1 F.
Tue Aug 4 13:08:04 2020 74.0 F. 60.1 F.
Tue Aug 4 14:08:04 2020 74.0 F. 60.1 F.
Tue Aug 4 15:08:04 2020 76.0 F. 57.9 F.
Tue Aug 4 16:08:05 2020 77.0 F. 57.9 F.
Tue Aug 4 17:08:04 2020 77.0 F. 57.9 F.
Tue Aug 4 18:08:05 2020 75.0 F. 59.0 F.
Tue Aug 4 19:08:05 2020 74.0 F. 59.0 F.
Tue Aug 4 20:08:05 2020 68.0 F. 60.1 F.
Tue Aug 4 21:08:04 2020 65.0 F. 60.1 F.
Tue Aug 4 22:08:05 2020 65.0 F. 60.1 F.
Tue Aug 4 23:08:05 2020 65.0 F. 57.9 F.
Wed Aug 5 00:08:06 2020 62.0 F. 59.0 F.
Wed Aug 5 01:08:04 2020 62.0 F. 59.0 F.
Wed Aug 5 02:08:04 2020 59.0 F. 57.0 F.
Wed Aug 5 03:08:05 2020 59.0 F. 57.0 F.
Wed Aug 5 04:08:05 2020 59.0 F. 55.9 F.
Wed Aug 5 05:08:04 2020 58.0 F. 55.9 F.
Wed Aug 5 06:08:05 2020 56.0 F. 54.0 F.
Wed Aug 5 07:08:05 2020 56.0 F. 54.0 F.
Wed Aug 5 08:08:05 2020 57.0 F. 55.0 F.
Wed Aug 5 09:08:05 2020 62.0 F. 57.9 F.
Wed Aug 5 10:08:05 2020 67.0 F. 59.0 F.
Wed Aug 5 11:08:06 2020 71.0 F. 59.0 F.
Wed Aug 5 12:08:05 2020 75.0 F. 54.0 F.
Wed Aug 5 13:08:05 2020 76.0 F. 53.1 F.
Wed Aug 5 14:08:04 2020 76.0 F. 53.1 F.
Wed Aug 5 15:08:05 2020 76.0 F. 54.0 F.
Wed Aug 5 16:08:05 2020 75.0 F. 55.9 F.
Wed Aug 5 17:08:04 2020 77.0 F. 53.1 F.
Wed Aug 5 18:08:06 2020 77.0 F. 55.0 F.
Wed Aug 5 19:08:05 2020 74.0 F. 55.9 F.
Wed Aug 5 20:08:05 2020 69.0 F. 60.1 F.
Wed Aug 5 21:08:06 2020 65.0 F. 59.0 F.
Wed Aug 5 22:08:06 2020 63.0 F. 60.1 F.
Wed Aug 5 23:08:05 2020 62.0 F. 59.0 F.
Thu Aug 6 00:08:05 2020 60.0 F. 57.9 F.
Thu Aug 6 01:08:06 2020 60.0 F. 57.9 F.
Thu Aug 6 02:08:04 2020 59.0 F. 57.0 F.
Thu Aug 6 03:08:07 2020 59.0 F. 57.0 F.
Thu Aug 6 04:08:06 2020 59.0 F. 57.0 F.
Thu Aug 6 05:08:06 2020 58.0 F. 55.9 F.
Thu Aug 6 06:08:05 2020 58.0 F. 55.9 F.
Thu Aug 6 07:08:05 2020 58.0 F. 55.9 F.
Thu Aug 6 08:08:05 2020 59.0 F. 57.0 F.
Thu Aug 6 09:08:04 2020 64.0 F. 60.1 F.
Thu Aug 6 10:08:05 2020 74.0 F. 57.9 F.
Thu Aug 6 11:08:05 2020 74.0 F. 57.9 F.
Thu Aug 6 12:08:05 2020 76.0 F. 55.9 F.
Thu Aug 6 13:08:05 2020 78.0 F. 55.9 F.
Thu Aug 6 14:08:05 2020 78.0 F. 55.9 F.
Thu Aug 6 15:08:05 2020 80.0 F. 57.0 F.
Thu Aug 6 16:08:05 2020 80.0 F. 57.0 F.
Thu Aug 6 17:08:05 2020 80.0 F. 59.0 F.
Thu Aug 6 18:08:04 2020 79.0 F. 60.1 F.
Thu Aug 6 19:08:06 2020 77.0 F. 60.1 F.
Thu Aug 6 20:08:05 2020 77.0 F. 60.1 F.
Thu Aug 6 21:08:05 2020 67.0 F. 62.1 F.
Thu Aug 6 22:08:05 2020 67.0 F. 62.1 F.
Thu Aug 6 23:08:04 2020 66.0 F. 63.0 F.
Fri Aug 7 00:08:05 2020 64.0 F. 61.0 F.
Fri Aug 7 01:08:05 2020 63.0 F. 61.0 F.
Fri Aug 7 02:08:04 2020 62.0 F. 60.1 F.
Fri Aug 7 03:08:05 2020 63.0 F. 61.0 F.
Fri Aug 7 04:08:05 2020 63.0 F. 61.0 F.
Fri Aug 7 05:08:04 2020 62.0 F. 60.1 F.
Fri Aug 7 06:08:05 2020 61.0 F. 59.0 F.
Fri Aug 7 07:08:04 2020 61.0 F. 59.0 F.
Fri Aug 7 08:08:04 2020 63.0 F. 61.0 F.
Fri Aug 7 09:08:05 2020 67.0 F. 62.1 F.
Fri Aug 7 10:08:05 2020 71.0 F. 62.1 F.
Fri Aug 7 11:08:04 2020 79.0 F. 61.0 F.
Fri Aug 7 12:08:10 2020 80.0 F. 62.1 F.
Fri Aug 7 13:08:05 2020 81.0 F. 64.0 F.
Fri Aug 7 14:08:05 2020 81.0 F. 64.0 F.
Fri Aug 7 15:08:04 2020 83.0 F. 62.1 F.
Fri Aug 7 16:08:05 2020 84.0 F. 64.0 F.
Fri Aug 7 17:08:05 2020 84.0 F. 64.0 F.
Fri Aug 7 18:08:04 2020 83.0 F. 63.0 F.
Fri Aug 7 19:08:04 2020 81.0 F. 64.9 F.
Fri Aug 7 20:08:05 2020 74.0 F. 66.0 F.
Fri Aug 7 21:08:05 2020 72.0 F. 64.9 F.
Fri Aug 7 22:08:05 2020 69.0 F. 64.9 F.
Fri Aug 7 23:08:05 2020 68.0 F. 64.9 F.
Sat Aug 8 00:08:05 2020 68.0 F. 64.9 F.
Sat Aug 8 01:08:04 2020 68.0 F. 64.9 F.
Sat Aug 8 02:08:05 2020 68.0 F. 64.9 F.
Sat Aug 8 03:08:05 2020 66.0 F. 64.0 F.
Sat Aug 8 04:08:05 2020 67.0 F. 61.0 F.
Sat Aug 8 05:08:05 2020 64.0 F. 62.1 F.
Sat Aug 8 06:08:05 2020 64.0 F. 62.1 F.
Sat Aug 8 07:08:05 2020 65.0 F. 62.1 F.
Sat Aug 8 08:08:10 2020 70.0 F. 64.0 F.
Sat Aug 8 09:08:05 2020 75.0 F. 64.9 F.
Sat Aug 8 10:08:06 2020 79.0 F. 66.9 F.
Sat Aug 8 11:08:05 2020 82.0 F. 69.1 F.
Sat Aug 8 12:08:04 2020 84.0 F. 70.0 F.
Sat Aug 8 13:08:05 2020 86.0 F. 71.1 F.
Sat Aug 8 14:08:06 2020 86.0 F. 71.1 F.
Sat Aug 8 15:08:05 2020 88.0 F. 70.0 F.
Sat Aug 8 16:08:05 2020 88.0 F. 72.0 F.
Sat Aug 8 17:08:04 2020 88.0 F. 72.0 F.
Sat Aug 8 18:08:05 2020 84.0 F. 72.0 F.
Sat Aug 8 19:08:04 2020 82.0 F. 72.0 F.
Sat Aug 8 20:08:05 2020 82.0 F. 72.0 F.
Sat Aug 8 21:08:05 2020 80.0 F. 73.0 F.
Sat Aug 8 22:08:04 2020 78.0 F. 73.9 F.
Sat Aug 8 23:08:05 2020 76.0 F. 73.9 F.
Sun Aug 9 00:08:05 2020 75.0 F. 73.0 F.
Sun Aug 9 01:08:05 2020 75.0 F. 73.0 F.
Sun Aug 9 02:08:05 2020 75.0 F. 73.0 F.
Sun Aug 9 03:08:04 2020 75.0 F. 72.0 F.
Sun Aug 9 04:08:05 2020 75.0 F. 72.0 F.
Sun Aug 9 05:08:05 2020 75.0 F. 72.0 F.
Sun Aug 9 06:08:04 2020 75.0 F. 72.0 F.
Sun Aug 9 07:08:05 2020 75.0 F. 72.0 F.
Sun Aug 9 08:08:05 2020 75.0 F. 72.0 F.
Sun Aug 9 09:08:05 2020 76.0 F. 72.0 F.
Sun Aug 9 10:08:05 2020 78.0 F. 73.0 F.
Sun Aug 9 11:08:06 2020 81.0 F. 72.0 F.
Sun Aug 9 12:08:11 2020 81.0 F. 72.0 F.
Sun Aug 9 13:08:05 2020 84.0 F. 73.9 F.
Sun Aug 9 14:08:04 2020 86.0 F. 73.9 F.
Sun Aug 9 15:08:05 2020 87.0 F. 75.0 F.
Sun Aug 9 16:08:05 2020 89.0 F. 75.9 F.
Sun Aug 9 17:08:05 2020 88.0 F. 75.9 F.
Sun Aug 9 18:08:05 2020 84.0 F. 77.0 F.
Sun Aug 9 19:08:05 2020 84.0 F. 77.0 F.
Sun Aug 9 20:08:04 2020 84.0 F. 77.0 F.
Sun Aug 9 21:08:05 2020 81.0 F. 75.9 F.
Sun Aug 9 22:08:05 2020 79.0 F. 75.0 F.
Sun Aug 9 23:08:05 2020 79.0 F. 75.0 F.
Mon Aug 10 00:08:05 2020 80.0 F. 75.9 F.
Mon Aug 10 01:08:04 2020 79.0 F. 75.0 F.
Mon Aug 10 02:08:04 2020 78.0 F. 73.9 F.
Mon Aug 10 03:08:05 2020 77.0 F. 73.0 F.
Mon Aug 10 04:08:05 2020 76.0 F. 73.0 F.
Mon Aug 10 05:08:04 2020 76.0 F. 73.0 F.
Mon Aug 10 06:08:05 2020 76.0 F. 73.0 F.
Mon Aug 10 07:08:05 2020 77.0 F. 73.9 F.
Mon Aug 10 08:08:05 2020 80.0 F. 75.0 F.
Mon Aug 10 09:08:05 2020 82.0 F. 75.0 F.
Mon Aug 10 10:08:05 2020 86.0 F. 75.9 F.
Mon Aug 10 11:08:05 2020 88.0 F. 75.9 F.
Mon Aug 10 12:08:04 2020 88.0 F. 75.9 F.
Mon Aug 10 13:08:06 2020 90.0 F. 78.1 F.
Mon Aug 10 14:08:05 2020 92.0 F. 75.9 F.
Mon Aug 10 15:08:06 2020 92.0 F. 77.0 F.
Mon Aug 10 16:08:04 2020 92.0 F. 77.0 F.
Mon Aug 10 17:08:05 2020 91.0 F. 77.0 F.
Mon Aug 10 18:08:05 2020 90.0 F. 77.0 F.
Mon Aug 10 19:08:04 2020 86.0 F. 75.9 F.
Mon Aug 10 20:08:05 2020 74.0 F. 68.0 F.
Mon Aug 10 21:08:05 2020 71.0 F. 68.0 F.
Mon Aug 10 22:08:05 2020 71.0 F. 68.0 F.
Mon Aug 10 23:08:04 2020 71.0 F. 68.0 F.
Tue Aug 11 00:08:05 2020 71.0 F. 68.0 F.
Tue Aug 11 01:08:05 2020 71.0 F. 66.9 F.
Tue Aug 11 02:08:05 2020 71.0 F. 66.9 F.
Tue Aug 11 03:08:06 2020 70.0 F. 66.9 F.
Tue Aug 11 04:08:05 2020 69.0 F. 66.9 F.
Tue Aug 11 05:08:05 2020 69.0 F. 66.9 F.
Tue Aug 11 06:08:04 2020 71.0 F. 69.1 F.
Tue Aug 11 07:08:05 2020 71.0 F. 69.1 F.
Tue Aug 11 08:08:05 2020 72.0 F. 69.1 F.
Tue Aug 11 09:08:05 2020 75.0 F. 71.1 F.
Tue Aug 11 10:08:05 2020 77.0 F. 71.1 F.
Tue Aug 11 11:08:05 2020 77.0 F. 71.1 F.
Tue Aug 11 12:08:05 2020 81.0 F. 72.0 F.
Tue Aug 11 13:08:06 2020 82.0 F. 73.0 F.
Tue Aug 11 14:08:05 2020 85.0 F. 73.0 F.
Tue Aug 11 15:08:05 2020 85.0 F. 73.0 F.
Tue Aug 11 16:08:05 2020 84.0 F. 73.0 F.
Tue Aug 11 17:08:05 2020 84.0 F. 73.0 F.
Tue Aug 11 18:08:05 2020 83.0 F. 75.0 F.
Tue Aug 11 19:08:05 2020 81.0 F. 75.0 F.
Tue Aug 11 20:08:05 2020 81.0 F. 75.0 F.
Tue Aug 11 21:08:05 2020 78.0 F. 75.9 F.
Tue Aug 11 22:08:05 2020 78.0 F. 75.0 F.
Tue Aug 11 23:08:05 2020 75.0 F. 72.0 F.
Wed Aug 12 00:08:05 2020 75.0 F. 72.0 F.
Wed Aug 12 01:08:04 2020 74.0 F. 72.0 F.
Wed Aug 12 02:08:05 2020 74.0 F. 71.1 F.
Wed Aug 12 03:08:05 2020 74.0 F. 71.1 F.
Wed Aug 12 04:08:05 2020 74.0 F. 72.0 F.
Wed Aug 12 05:08:05 2020 74.0 F. 72.0 F.
Wed Aug 12 06:08:05 2020 74.0 F. 72.0 F.
Wed Aug 12 07:08:05 2020 74.0 F. 71.1 F.
Wed Aug 12 08:08:05 2020 76.0 F. 73.9 F.
Wed Aug 12 09:08:05 2020 76.0 F. 73.9 F.
Wed Aug 12 10:08:05 2020 76.0 F. 73.9 F.
Wed Aug 12 11:08:05 2020 82.0 F. 75.0 F.
Wed Aug 12 12:08:05 2020 82.0 F. 73.9 F.
Wed Aug 12 13:08:05 2020 76.0 F. 70.0 F.
Wed Aug 12 14:08:05 2020 76.0 F. 70.0 F.
Wed Aug 12 15:08:06 2020 73.0 F. 68.0 F.
Wed Aug 12 16:08:06 2020 74.0 F. 70.0 F.
Wed Aug 12 17:08:05 2020 78.0 F. 71.1 F.
Wed Aug 12 18:08:06 2020 81.0 F. 73.9 F.
Wed Aug 12 19:08:10 2020 79.0 F. 73.0 F.
Wed Aug 12 20:08:05 2020 76.0 F. 73.0 F.
Wed Aug 12 21:08:05 2020 75.0 F. 72.0 F.
Wed Aug 12 22:08:05 2020 73.0 F. 71.1 F.
Wed Aug 12 23:08:05 2020 73.0 F. 71.1 F.
Thu Aug 13 00:08:04 2020 72.0 F. 70.0 F.
Thu Aug 13 01:08:04 2020 72.0 F. 70.0 F.
Thu Aug 13 02:08:04 2020 72.0 F. 70.0 F.
Thu Aug 13 03:08:06 2020 72.0 F. 70.0 F.
Thu Aug 13 04:08:05 2020 73.0 F. 71.1 F.
Thu Aug 13 05:08:04 2020 73.0 F. 70.0 F.
Thu Aug 13 06:08:05 2020 72.0 F. 70.0 F.
Thu Aug 13 07:08:05 2020 72.0 F. 70.0 F.
Thu Aug 13 08:08:05 2020 72.0 F. 70.0 F.
Thu Aug 13 09:08:05 2020 75.0 F. 72.0 F.
Thu Aug 13 10:08:05 2020 81.0 F. 73.9 F.
Thu Aug 13 11:08:05 2020 81.0 F. 75.0 F.
Thu Aug 13 12:08:05 2020 82.0 F. 73.9 F.
Thu Aug 13 13:08:05 2020 82.0 F. 73.9 F.
Thu Aug 13 14:08:05 2020 84.0 F. 73.0 F.
Thu Aug 13 15:08:05 2020 84.0 F. 73.0 F.
Thu Aug 13 16:08:04 2020 80.0 F. 71.1 F.
Thu Aug 13 17:08:04 2020 78.0 F. 73.0 F.
Thu Aug 13 18:08:05 2020 79.0 F. 73.9 F.
Thu Aug 13 19:08:05 2020 79.0 F. 73.9 F.
Thu Aug 13 20:08:05 2020 77.0 F. 73.9 F.
Thu Aug 13 21:08:05 2020 76.0 F. 73.9 F.
Thu Aug 13 22:08:05 2020 76.0 F. 73.0 F.
Thu Aug 13 23:08:06 2020 75.0 F. 73.0 F.
Fri Aug 14 00:08:04 2020 75.0 F. 73.0 F.
Fri Aug 14 01:08:05 2020 74.0 F. 72.0 F.
Fri Aug 14 02:08:05 2020 73.0 F. 70.0 F.
Fri Aug 14 03:08:05 2020 72.0 F. 70.0 F.
Fri Aug 14 04:08:05 2020 72.0 F. 70.0 F.
Fri Aug 14 05:08:05 2020 72.0 F. 69.1 F.
Fri Aug 14 06:08:06 2020 72.0 F. 69.1 F.
Fri Aug 14 07:08:05 2020 71.0 F. 69.1 F.
Fri Aug 14 08:08:05 2020 74.0 F. 71.1 F.
Fri Aug 14 09:08:04 2020 77.0 F. 71.1 F.
Fri Aug 14 10:08:05 2020 81.0 F. 72.0 F.
Fri Aug 14 11:08:05 2020 81.0 F. 71.1 F.
Fri Aug 14 12:08:05 2020 81.0 F. 71.1 F.
Fri Aug 14 13:08:05 2020 82.0 F. 72.0 F.
Fri Aug 14 14:08:05 2020 83.0 F. 73.0 F.
Fri Aug 14 15:08:05 2020 88.0 F. 71.1 F.
Fri Aug 14 16:08:28 2020 84.0 F. 72.0 F.
Fri Aug 14 17:08:05 2020 87.0 F. 71.1 F.
Fri Aug 14 18:08:05 2020 87.0 F. 70.0 F.
Fri Aug 14 19:08:05 2020 84.0 F. 71.1 F.
Fri Aug 14 20:08:05 2020 78.0 F. 72.0 F.
Fri Aug 14 21:08:06 2020 73.0 F. 71.6 F.
Fri Aug 14 22:08:06 2020 73.0 F. 70.0 F.
Fri Aug 14 23:08:05 2020 73.0 F. 70.0 F.
Sat Aug 15 00:08:05 2020 70.0 F. 68.0 F.
Sat Aug 15 01:08:05 2020 70.0 F. 68.0 F.
Sat Aug 15 02:08:05 2020 70.0 F. 69.1 F.
Sat Aug 15 03:08:05 2020 69.0 F. 66.9 F.
Sat Aug 15 04:08:05 2020 68.0 F. 66.9 F.
Sat Aug 15 05:08:04 2020 68.0 F. 66.9 F.
Sat Aug 15 06:08:05 2020 68.0 F. 66.0 F.
Sat Aug 15 07:08:05 2020 68.0 F. 66.0 F.
Sat Aug 15 08:08:04 2020 74.0 F. 71.1 F.
Sat Aug 15 09:08:05 2020 79.0 F. 73.0 F.
Sat Aug 15 10:08:05 2020 83.0 F. 73.9 F.
Sat Aug 15 11:08:35 2020 83.0 F. 73.9 F.
Sat Aug 15 12:08:06 2020 87.0 F. 72.0 F.
Sat Aug 15 13:08:05 2020 87.0 F. 70.0 F.
Sat Aug 15 14:09:02 2020
Sat Aug 15 15:08:11 2020 89.0 F. 71.1 F.
Sat Aug 15 16:08:05 2020 89.0 F. 72.0 F.
Sat Aug 15 17:08:06 2020 89.0 F. 69.1 F.
Sat Aug 15 18:08:05 2020 88.0 F. 71.1 F.
Sat Aug 15 19:08:05 2020 85.0 F. 73.9 F.
Sat Aug 15 20:08:05 2020 79.0 F. 73.9 F.
Sat Aug 15 21:08:07 2020 77.0 F. 73.9 F.
Sat Aug 15 22:08:05 2020 77.0 F. 73.9 F.
Sat Aug 15 23:08:06 2020 75.0 F. 72.0 F.
Sun Aug 16 00:08:05 2020 75.0 F. 71.1 F.
Sun Aug 16 01:08:04 2020 75.0 F. 71.1 F.
Sun Aug 16 02:08:05 2020 73.0 F. 70.0 F.
Sun Aug 16 03:08:05 2020 71.0 F. 66.9 F.
Sun Aug 16 04:08:04 2020 71.0 F. 68.0 F.
Sun Aug 16 05:08:04 2020 71.0 F. 68.0 F.
Sun Aug 16 06:08:05 2020 70.0 F. 66.0 F.
Sun Aug 16 07:08:05 2020 70.0 F. 66.0 F.
Sun Aug 16 08:08:05 2020 69.0 F. 64.9 F.
Sun Aug 16 09:08:05 2020 70.0 F. 64.9 F.
Sun Aug 16 10:08:23 2020 73.0 F. 64.9 F.
Sun Aug 16 11:08:05 2020 77.0 F. 63.0 F.
Sun Aug 16 12:08:19 2020 78.0 F. 62.1 F.
Sun Aug 16 13:08:05 2020 80.0 F. 63.0 F.
Sun Aug 16 14:08:05 2020 82.0 F. 63.0 F.
Sun Aug 16 15:08:05 2020 83.0 F. 62.1 F.
Sun Aug 16 16:08:05 2020 83.0 F. 62.1 F.
Sun Aug 16 17:08:05 2020 83.0 F. 62.1 F.
Sun Aug 16 18:08:07 2020 83.0 F. 63.0 F.
Sun Aug 16 19:08:05 2020 83.0 F. 63.0 F.
Sun Aug 16 20:08:05 2020 73.0 F. 66.9 F.
Sun Aug 16 21:08:05 2020 70.0 F. 64.9 F.
Sun Aug 16 22:08:05 2020 67.0 F. 64.9 F.
Sun Aug 16 23:08:04 2020 67.0 F. 64.9 F.
Mon Aug 17 00:08:09 2020 66.0 F. 63.0 F.
Mon Aug 17 01:08:05 2020 67.0 F. 63.0 F.
Mon Aug 17 02:08:04 2020 67.0 F. 63.0 F.
Mon Aug 17 03:08:05 2020 65.0 F. 63.0 F.
Mon Aug 17 04:08:05 2020 64.0 F. 62.1 F.
Mon Aug 17 05:08:05 2020 64.0 F. 62.1 F.
Mon Aug 17 06:08:05 2020 63.0 F. 61.0 F.
Mon Aug 17 07:08:05 2020 63.0 F. 61.0 F.
Mon Aug 17 08:08:05 2020 68.0 F. 64.9 F.
Mon Aug 17 09:08:05 2020 74.0 F. 66.9 F.
Mon Aug 17 10:08:05 2020 74.0 F. 66.9 F.
Mon Aug 17 11:08:04 2020 81.0 F. 66.9 F.
Mon Aug 17 12:08:05 2020 81.0 F. 66.9 F.
Mon Aug 17 13:08:04 2020 86.0 F. 61.0 F.
Mon Aug 17 14:08:05 2020 87.0 F. 55.9 F.
Mon Aug 17 15:08:05 2020 87.0 F. 63.0 F.
Mon Aug 17 16:08:07 2020 87.0 F. 61.0 F.
Mon Aug 17 17:08:04 2020 85.0 F. 64.0 F.
Mon Aug 17 18:08:05 2020 85.0 F. 64.0 F.
Mon Aug 17 19:08:05 2020 81.0 F. 64.9 F.
Mon Aug 17 20:08:05 2020 75.0 F. 64.9 F.
Mon Aug 17 21:08:06 2020 72.0 F. 64.9 F.
Mon Aug 17 22:08:05 2020 72.0 F. 64.9 F.
Mon Aug 17 23:08:05 2020 72.0 F. 64.9 F.
Tue Aug 18 00:08:05 2020 72.0 F. 64.9 F.
Tue Aug 18 01:08:04 2020 69.0 F. 64.9 F.
Tue Aug 18 02:08:04 2020 69.0 F. 64.9 F.
Tue Aug 18 03:08:04 2020 71.0 F. 66.0 F.
Tue Aug 18 04:08:05 2020 68.0 F. 64.9 F.
Tue Aug 18 05:08:04 2020 67.0 F. 64.0 F.
Tue Aug 18 06:08:04 2020 65.0 F. 62.1 F.
Tue Aug 18 07:08:06 2020 67.0 F. 64.0 F.
Tue Aug 18 08:08:04 2020 70.0 F. 66.0 F.
Tue Aug 18 09:08:05 2020 70.0 F. 66.0 F.
Tue Aug 18 10:08:04 2020 71.0 F. 66.9 F.
Tue Aug 18 11:08:09 2020 71.0 F. 66.9 F.
Tue Aug 18 12:08:05 2020 74.0 F. 66.9 F.
Tue Aug 18 13:08:05 2020 75.0 F. 68.0 F.
Tue Aug 18 14:08:05 2020 80.0 F. 69.1 F.
Tue Aug 18 15:08:06 2020 80.0 F. 69.1 F.
Tue Aug 18 16:08:05 2020 83.0 F. 66.9 F.
Tue Aug 18 17:08:05 2020 82.0 F. 64.0 F.
Tue Aug 18 18:08:05 2020 82.0 F. 64.0 F.
Tue Aug 18 19:08:06 2020 79.0 F. 63.0 F.
Tue Aug 18 20:08:06 2020 73.0 F. 64.0 F.
Tue Aug 18 21:08:05 2020 73.0 F. 64.0 F.
Tue Aug 18 22:08:05 2020 68.0 F. 63.0 F.
Tue Aug 18 23:08:05 2020 68.0 F. 63.0 F.
Wed Aug 19 00:08:05 2020 65.0 F. 63.0 F.
Wed Aug 19 01:08:04 2020 65.0 F. 63.0 F.
Wed Aug 19 02:08:05 2020 66.0 F. 62.1 F.
Wed Aug 19 03:08:04 2020 65.0 F. 59.0 F.
Wed Aug 19 04:08:04 2020 65.0 F. 59.0 F.
Wed Aug 19 05:08:04 2020 63.0 F. 57.9 F.
Wed Aug 19 06:08:05 2020 61.0 F. 57.0 F.
Wed Aug 19 07:08:04 2020 60.0 F. 55.9 F.
Wed Aug 19 08:08:05 2020 65.0 F. 57.9 F.
Wed Aug 19 09:08:05 2020 69.0 F. 59.0 F.
Wed Aug 19 10:08:05 2020 72.0 F. 61.0 F.
Wed Aug 19 11:08:22 2020
Wed Aug 19 12:08:04 2020 74.0 F. 62.1 F.
Wed Aug 19 13:08:05 2020 74.0 F. 62.1 F.
Wed Aug 19 14:08:05 2020 79.0 F. 60.1 F.
Wed Aug 19 15:08:05 2020 79.0 F. 60.1 F.
Wed Aug 19 16:08:04 2020 79.0 F. 60.1 F.
Wed Aug 19 17:08:04 2020 80.0 F. 60.1 F.
Wed Aug 19 18:08:05 2020 78.0 F. 57.0 F.
Wed Aug 19 19:08:05 2020 75.0 F. 57.9 F.
Wed Aug 19 20:08:05 2020 69.0 F. 60.1 F.
Wed Aug 19 21:08:05 2020 69.0 F. 60.1 F.
Wed Aug 19 22:08:05 2020 63.0 F. 59.0 F.
Wed Aug 19 23:08:05 2020 62.0 F. 59.0 F.
Thu Aug 20 00:08:05 2020 62.0 F. 59.0 F.
Thu Aug 20 01:08:05 2020 62.0 F. 59.0 F.
Thu Aug 20 02:08:04 2020 58.0 F. 55.9 F.
Thu Aug 20 03:08:05 2020 59.0 F. 57.0 F.
Thu Aug 20 04:08:05 2020 59.0 F. 57.0 F.
Thu Aug 20 05:08:05 2020 58.0 F. 55.9 F.
Thu Aug 20 06:08:04 2020 57.0 F. 55.9 F.
Thu Aug 20 07:08:05 2020 59.0 F. 57.0 F.
Thu Aug 20 08:08:05 2020 59.0 F. 57.0 F.
Thu Aug 20 09:08:05 2020 69.0 F. 61.0 F.
Thu Aug 20 10:08:04 2020 72.0 F. 62.1 F.
Thu Aug 20 11:08:05 2020 72.0 F. 62.1 F.
Thu Aug 20 12:08:05 2020 79.0 F. 63.0 F.
Thu Aug 20 13:08:05 2020 79.0 F. 63.0 F.
Thu Aug 20 14:08:05 2020 82.0 F. 62.1 F.
Thu Aug 20 15:08:05 2020 80.0 F. 62.1 F.
Thu Aug 20 16:08:05 2020 83.0 F. 62.1 F.
Thu Aug 20 17:08:06 2020 82.0 F. 63.0 F.
Thu Aug 20 18:08:04 2020 82.0 F. 63.0 F.
Thu Aug 20 19:08:05 2020 78.0 F. 64.9 F.
Thu Aug 20 20:08:05 2020 78.0 F. 64.9 F.
Thu Aug 20 21:08:05 2020 67.0 F. 62.1 F.
Thu Aug 20 22:08:05 2020 65.0 F. 62.1 F.
Thu Aug 20 23:08:06 2020 65.0 F. 62.1 F.
Fri Aug 21 00:08:05 2020 63.0 F. 61.0 F.
Fri Aug 21 01:08:05 2020 62.0 F. 60.1 F.
Fri Aug 21 02:08:04 2020 61.0 F. 60.1 F.
Fri Aug 21 03:08:05 2020 61.0 F. 60.1 F.
Fri Aug 21 04:08:05 2020 60.0 F. 59.0 F.
Fri Aug 21 05:08:05 2020 60.0 F. 59.0 F.
Fri Aug 21 06:08:10 2020 61.0 F. 59.0 F.
Fri Aug 21 07:08:05 2020 61.0 F. 59.0 F.
Fri Aug 21 08:08:05 2020 65.0 F. 62.1 F.
Fri Aug 21 09:08:05 2020 65.0 F. 62.1 F.
Fri Aug 21 10:08:05 2020 76.0 F. 64.0 F.
Fri Aug 21 11:08:06 2020 80.0 F. 64.0 F.
Fri Aug 21 12:08:05 2020 80.0 F. 64.0 F.
Fri Aug 21 13:08:06 2020 82.0 F. 66.0 F.
Fri Aug 21 14:08:07 2020 84.0 F. 64.9 F.
Fri Aug 21 15:08:04 2020 84.0 F. 64.9 F.
Fri Aug 21 16:08:06 2020 85.0 F. 66.0 F.
Fri Aug 21 17:08:05 2020 84.0 F. 66.9 F.
Fri Aug 21 18:08:04 2020 84.0 F. 66.9 F.
Fri Aug 21 19:08:05 2020 81.0 F. 70.0 F.
Fri Aug 21 20:08:06 2020 76.0 F. 70.0 F.
Fri Aug 21 21:08:05 2020 75.0 F. 69.1 F.
Fri Aug 21 22:08:05 2020 75.0 F. 69.1 F.
Fri Aug 21 23:08:05 2020 70.0 F. 66.9 F.
Sat Aug 22 00:08:06 2020 67.0 F. 64.9 F.
Sat Aug 22 01:08:05 2020 68.0 F. 64.9 F.
Sat Aug 22 02:08:05 2020 66.0 F. 64.0 F.
Sat Aug 22 03:08:05 2020 64.0 F. 63.0 F.
Sat Aug 22 04:08:05 2020 64.0 F. 63.0 F.
Sat Aug 22 05:08:40 2020
Sat Aug 22 06:08:39 2020
Sat Aug 22 07:08:05 2020 65.0 F. 63.0 F.
Sat Aug 22 08:08:08 2020 67.0 F. 66.0 F.
Sat Aug 22 09:08:09 2020 67.0 F. 66.0 F.
Sat Aug 22 10:08:04 2020 72.0 F. 69.1 F.
Sat Aug 22 11:08:04 2020 81.0 F. 70.0 F.
Sat Aug 22 12:08:05 2020 83.0 F. 69.1 F.
Sat Aug 22 13:08:05 2020 83.0 F. 69.1 F.
Sat Aug 22 14:08:05 2020 86.0 F. 66.9 F.
Sat Aug 22 15:08:09 2020 86.0 F. 66.9 F.
Sat Aug 22 16:08:05 2020 87.0 F. 66.0 F.
Sat Aug 22 17:08:05 2020 86.0 F. 66.0 F.
Sat Aug 22 18:08:05 2020 85.0 F. 64.0 F.
Sat Aug 22 19:08:04 2020 85.0 F. 64.0 F.
Sat Aug 22 20:08:05 2020 74.0 F. 68.0 F.
Sat Aug 22 21:08:05 2020 69.0 F. 66.9 F.
Sat Aug 22 22:08:04 2020 69.0 F. 66.9 F.
Sat Aug 22 23:08:05 2020 70.0 F. 66.9 F.
Sun Aug 23 00:08:05 2020 67.0 F. 66.0 F.
Sun Aug 23 01:08:04 2020 67.0 F. 66.0 F.
Sun Aug 23 02:08:04 2020 66.0 F. 64.9 F.
Sun Aug 23 03:08:04 2020 65.0 F. 63.0 F.
Sun Aug 23 04:08:06 2020 65.0 F. 64.0 F.
Sun Aug 23 05:08:05 2020 63.0 F. 62.1 F.
Sun Aug 23 06:08:05 2020 63.0 F. 62.1 F.
Sun Aug 23 07:08:04 2020 64.0 F. 63.0 F.
Sun Aug 23 08:08:06 2020 69.0 F. 66.9 F.
Sun Aug 23 09:08:05 2020 69.0 F. 66.9 F.
Sun Aug 23 10:08:40 2020
Sun Aug 23 11:08:05 2020 83.0 F. 69.1 F.
Sun Aug 23 12:08:05 2020 83.0 F. 69.1 F.
Sun Aug 23 13:08:05 2020 86.0 F. 70.0 F.
Sun Aug 23 14:08:05 2020 87.0 F. 69.1 F.
Sun Aug 23 15:08:05 2020 87.0 F. 69.1 F.
Sun Aug 23 16:08:05 2020 88.0 F. 68.0 F.
Sun Aug 23 17:08:05 2020 88.0 F. 68.0 F.
Sun Aug 23 18:08:04 2020 88.0 F. 68.0 F.
Sun Aug 23 19:08:05 2020 82.0 F. 70.0 F.
Sun Aug 23 20:08:05 2020 77.0 F. 70.0 F.
Sun Aug 23 21:08:05 2020 77.0 F. 69.1 F.
Sun Aug 23 22:08:05 2020 77.0 F. 69.1 F.
Sun Aug 23 23:08:05 2020 72.0 F. 68.0 F.
Mon Aug 24 00:08:05 2020 71.0 F. 68.0 F.
Mon Aug 24 01:08:06 2020 71.0 F. 68.0 F.
Mon Aug 24 02:08:04 2020 70.0 F. 68.0 F.
Mon Aug 24 03:08:04 2020 68.0 F. 66.0 F.
Mon Aug 24 04:08:05 2020 70.0 F. 68.0 F.
Mon Aug 24 05:08:05 2020 70.0 F. 66.9 F.
Mon Aug 24 06:08:05 2020 69.0 F. 66.9 F.
Mon Aug 24 07:08:06 2020 69.0 F. 66.9 F.
Mon Aug 24 08:08:06 2020 74.0 F. 70.0 F.
Mon Aug 24 09:08:04 2020 79.0 F. 70.0 F.
Mon Aug 24 10:08:05 2020 84.0 F. 70.0 F.
Mon Aug 24 11:08:05 2020 85.0 F. 71.1 F.
Mon Aug 24 12:08:05 2020 87.0 F. 72.0 F.
Mon Aug 24 13:08:05 2020 89.0 F. 72.0 F.
Mon Aug 24 14:08:05 2020 89.0 F. 72.0 F.
Mon Aug 24 15:08:05 2020 91.0 F. 71.1 F.
Mon Aug 24 16:08:05 2020 90.0 F. 72.0 F.
Mon Aug 24 17:08:05 2020 90.0 F. 72.0 F.
Mon Aug 24 18:08:05 2020 87.0 F. 70.0 F.
Mon Aug 24 19:08:06 2020 87.0 F. 70.0 F.
Mon Aug 24 20:08:07 2020 82.0 F. 71.1 F.
Mon Aug 24 21:08:05 2020 77.0 F. 73.0 F.
Mon Aug 24 22:08:10 2020 73.0 F. 70.0 F.
Mon Aug 24 23:08:05 2020 73.0 F. 70.0 F.
Tue Aug 25 00:08:05 2020 71.0 F. 70.0 F.
Tue Aug 25 01:08:08 2020 70.0 F. 68.0 F.
Tue Aug 25 02:08:05 2020 71.0 F. 69.1 F.
Tue Aug 25 03:08:04 2020 68.0 F. 66.9 F.
Tue Aug 25 04:08:05 2020 70.0 F. 68.0 F.
Tue Aug 25 05:08:05 2020 68.0 F. 66.0 F.
Tue Aug 25 06:08:04 2020 67.0 F. 66.0 F.
Tue Aug 25 07:08:05 2020 67.0 F. 66.0 F.
Tue Aug 25 08:08:05 2020 68.0 F. 66.0 F.
Tue Aug 25 09:08:06 2020 78.0 F. 73.0 F.
Tue Aug 25 10:08:05 2020 83.0 F. 73.0 F.
Tue Aug 25 11:08:05 2020 83.0 F. 73.0 F.
Tue Aug 25 12:08:05 2020 86.0 F. 71.1 F.
Tue Aug 25 13:08:10 2020 89.0 F. 69.1 F.
Tue Aug 25 14:08:06 2020 89.0 F. 69.1 F.
Tue Aug 25 15:08:06 2020 90.0 F. 71.1 F.
Tue Aug 25 16:08:05 2020 91.0 F. 68.0 F.
Tue Aug 25 17:08:05 2020 88.0 F. 71.1 F.
Tue Aug 25 18:08:05 2020 88.0 F. 71.1 F.
Tue Aug 25 19:08:05 2020 84.0 F. 75.9 F.
Tue Aug 25 20:08:05 2020 78.0 F. 73.0 F.
Tue Aug 25 21:08:05 2020 75.0 F. 72.0 F.
Tue Aug 25 22:08:05 2020 75.0 F. 72.0 F.
Tue Aug 25 23:08:06 2020 72.0 F. 70.0 F.
Wed Aug 26 00:08:06 2020 71.0 F. 69.1 F.
Wed Aug 26 01:08:50 2020
Wed Aug 26 02:08:05 2020 69.0 F. 66.9 F.
Wed Aug 26 03:08:05 2020 69.0 F. 66.9 F.
Wed Aug 26 04:08:40 2020
Wed Aug 26 05:08:39 2020
Wed Aug 26 06:08:16 2020 70.0 F. 68.0 F.
Wed Aug 26 07:08:15 2020 70.0 F. 68.0 F.
Wed Aug 26 08:08:42 2020
Wed Aug 26 09:08:20 2020 76.0 F. 73.0 F.
Wed Aug 26 10:09:00 2020
Wed Aug 26 11:08:14 2020 80.0 F. 73.0 F.
Wed Aug 26 12:08:18 2020 84.0 F. 73.9 F.
Wed Aug 26 13:08:14 2020 83.0 F. 73.9 F.
Wed Aug 26 14:08:15 2020 83.0 F. 73.9 F.
Wed Aug 26 15:08:15 2020 88.0 F. 73.0 F.
Wed Aug 26 16:08:14 2020 80.0 F. 75.0 F.
Wed Aug 26 17:08:14 2020 81.0 F. 75.0 F.
Wed Aug 26 18:08:14 2020 81.0 F. 73.0 F.
Wed Aug 26 19:08:15 2020 81.0 F. 73.0 F.
Wed Aug 26 20:08:15 2020 80.0 F. 73.9 F.
Wed Aug 26 21:08:15 2020 77.0 F. 73.0 F.
Wed Aug 26 22:08:15 2020 77.0 F. 73.9 F.
Wed Aug 26 23:08:15 2020 78.0 F. 73.9 F.
Thu Aug 27 00:08:14 2020 78.0 F. 73.9 F.
Thu Aug 27 01:08:15 2020 78.0 F. 73.9 F.
Thu Aug 27 02:08:15 2020 77.0 F. 73.9 F.
Thu Aug 27 03:08:17 2020 76.0 F. 72.0 F.
Thu Aug 27 04:08:16 2020 75.0 F. 72.0 F.
Thu Aug 27 05:08:14 2020 76.0 F. 72.0 F.
Thu Aug 27 06:08:15 2020 76.0 F. 73.0 F.
Thu Aug 27 07:08:15 2020 76.0 F. 73.0 F.
Thu Aug 27 08:08:15 2020 76.0 F. 73.0 F.
Thu Aug 27 09:08:15 2020 77.0 F. 73.9 F.
Thu Aug 27 10:08:15 2020 78.0 F. 73.9 F.
Thu Aug 27 11:08:16 2020 78.0 F. 73.9 F.
Thu Aug 27 12:08:07 2020 84.0 F. 73.9 F.
Thu Aug 27 13:08:05 2020 86.0 F. 75.9 F.
Thu Aug 27 14:08:05 2020 85.0 F. 75.9 F.
Thu Aug 27 15:08:05 2020 85.0 F. 75.9 F.
Thu Aug 27 16:08:05 2020 85.0 F. 75.9 F.
Thu Aug 27 17:08:04 2020 84.0 F. 75.9 F.
Thu Aug 27 18:08:05 2020 83.0 F. 77.0 F.
Thu Aug 27 19:08:05 2020 83.0 F. 77.0 F.
Thu Aug 27 20:08:06 2020 78.0 F. 75.0 F.
Thu Aug 27 21:08:05 2020 79.0 F. 75.9 F.
Thu Aug 27 22:08:05 2020 80.0 F. 75.0 F.
Thu Aug 27 23:08:06 2020 77.0 F. 66.9 F.
Fri Aug 28 00:08:05 2020 75.0 F. 68.0 F.
Fri Aug 28 01:08:04 2020 74.0 F. 70.0 F.
Fri Aug 28 02:08:05 2020 74.0 F. 71.1 F.
Fri Aug 28 03:08:06 2020 75.0 F. 71.1 F.
Fri Aug 28 04:08:05 2020 76.0 F. 71.1 F.
Fri Aug 28 05:08:04 2020 76.0 F. 72.0 F.
Fri Aug 28 06:08:05 2020 76.0 F. 72.0 F.
Fri Aug 28 07:08:07 2020 76.0 F. 72.0 F.
Fri Aug 28 08:08:06 2020 77.0 F. 71.1 F.
Fri Aug 28 09:08:04 2020 78.0 F. 72.0 F.
Fri Aug 28 10:08:05 2020 78.0 F. 72.0 F.
Fri Aug 28 11:08:06 2020 76.0 F. 73.0 F.
Fri Aug 28 12:08:05 2020 76.0 F. 73.0 F.
Fri Aug 28 13:08:04 2020 79.0 F. 73.9 F.
Fri Aug 28 14:08:05 2020 79.0 F. 73.9 F.
Fri Aug 28 15:08:05 2020 76.0 F. 73.0 F.
Fri Aug 28 16:08:05 2020 78.0 F. 73.9 F.
Fri Aug 28 17:08:04 2020 78.0 F. 73.9 F.
Fri Aug 28 18:08:05 2020 78.0 F. 73.9 F.
Fri Aug 28 19:08:05 2020 78.0 F. 72.0 F.
Fri Aug 28 20:08:05 2020 74.0 F. 71.1 F.
Fri Aug 28 21:08:13 2020 73.0 F. 71.1 F.
Fri Aug 28 22:08:04 2020 73.0 F. 71.1 F.
Fri Aug 28 23:08:05 2020 72.0 F. 70.0 F.
Sat Aug 29 00:08:05 2020 72.0 F. 70.0 F.
Sat Aug 29 01:08:06 2020 72.0 F. 70.0 F.
Sat Aug 29 02:08:04 2020 73.0 F. 71.1 F.
Sat Aug 29 03:08:04 2020 70.0 F. 69.1 F.
Sat Aug 29 04:08:05 2020 69.0 F. 68.0 F.
Sat Aug 29 05:08:05 2020 69.0 F. 68.0 F.
Sat Aug 29 06:08:05 2020 70.0 F. 69.1 F.
Sat Aug 29 07:08:05 2020 70.0 F. 69.1 F.
Sat Aug 29 08:08:05 2020 76.0 F. 72.0 F.
Sat Aug 29 09:08:04 2020 79.0 F. 73.0 F.
Sat Aug 29 10:08:05 2020 81.0 F. 72.0 F.
Sat Aug 29 11:08:04 2020 84.0 F. 72.0 F.
Sat Aug 29 12:08:05 2020 84.0 F. 72.0 F.
Sat Aug 29 13:08:04 2020 85.0 F. 72.0 F.
Sat Aug 29 14:08:05 2020 85.0 F. 72.0 F.
Sat Aug 29 15:08:05 2020 83.0 F. 70.0 F.
Sat Aug 29 16:08:04 2020 82.0 F. 70.0 F.
Sat Aug 29 17:08:05 2020 82.0 F. 70.0 F.
Sat Aug 29 18:08:05 2020 81.0 F. 69.1 F.
Sat Aug 29 19:08:05 2020 81.0 F. 69.1 F.
Sat Aug 29 20:08:05 2020 76.0 F. 71.1 F.
Sat Aug 29 21:08:05 2020 76.0 F. 71.1 F.
Sat Aug 29 22:08:04 2020 75.0 F. 71.1 F.
Sat Aug 29 23:08:05 2020 74.0 F. 69.1 F.
Sun Aug 30 00:08:05 2020 73.0 F. 69.1 F.
Sun Aug 30 01:08:05 2020 71.0 F. 66.0 F.
Sun Aug 30 02:08:05 2020 69.0 F. 64.9 F.
Sun Aug 30 03:08:24 2020 69.0 F. 64.0 F.
Sun Aug 30 04:08:05 2020 68.0 F. 63.0 F.
Sun Aug 30 05:08:05 2020 66.0 F. 62.1 F.
Sun Aug 30 06:08:05 2020 66.0 F. 63.0 F.
Sun Aug 30 07:08:04 2020 66.0 F. 63.0 F.
Sun Aug 30 08:08:05 2020 67.0 F. 62.1 F.
Sun Aug 30 09:08:05 2020 68.0 F. 62.1 F.
Sun Aug 30 10:08:05 2020 71.0 F. 63.0 F.
Sun Aug 30 11:08:05 2020 73.0 F. 63.0 F.
Sun Aug 30 12:08:05 2020 75.0 F. 64.9 F.
Sun Aug 30 13:08:04 2020 75.0 F. 66.9 F.
Sun Aug 30 14:08:05 2020 75.0 F. 66.9 F.
Sun Aug 30 15:08:05 2020 76.0 F. 66.9 F.
Sun Aug 30 16:08:05 2020 77.0 F. 66.9 F.
Sun Aug 30 17:08:05 2020 78.0 F. 68.0 F.
Sun Aug 30 18:08:10 2020 78.0 F. 69.1 F.
Sun Aug 30 19:08:05 2020 75.0 F. 69.1 F.
Sun Aug 30 20:08:05 2020 74.0 F. 69.1 F.
Sun Aug 30 21:08:05 2020 73.0 F. 69.1 F.
Sun Aug 30 22:08:05 2020 72.0 F. 70.0 F.
Sun Aug 30 23:08:05 2020 72.0 F. 70.0 F.
Mon Aug 31 00:08:05 2020 72.0 F. 70.0 F.
Mon Aug 31 01:08:04 2020 72.0 F. 70.0 F.
Mon Aug 31 02:08:05 2020 72.0 F. 70.0 F.
Mon Aug 31 03:08:04 2020 71.0 F. 70.0 F.
Mon Aug 31 04:08:05 2020 71.0 F. 70.0 F.
Mon Aug 31 05:08:05 2020 69.0 F. 68.0 F.
Mon Aug 31 06:08:05 2020 69.0 F. 68.0 F.
Mon Aug 31 07:08:04 2020 72.0 F. 70.0 F.
Mon Aug 31 08:08:07 2020 73.0 F. 71.1 F.
Mon Aug 31 09:08:05 2020 73.0 F. 71.1 F.
Mon Aug 31 10:08:07 2020 76.0 F. 72.0 F.
Mon Aug 31 11:08:06 2020 80.0 F. 73.0 F.
Mon Aug 31 12:08:08 2020 81.0 F. 73.0 F.
Mon Aug 31 13:08:06 2020 83.0 F. 72.0 F.
Mon Aug 31 14:08:05 2020 82.0 F. 72.0 F.
Mon Aug 31 15:08:19 2020 79.0 F. 73.0 F.
Mon Aug 31 16:08:04 2020 75.0 F. 71.1 F.
Mon Aug 31 17:08:05 2020 74.0 F. 71.1 F.
Mon Aug 31 18:08:06 2020 76.0 F. 71.1 F.
Mon Aug 31 19:08:20 2020 75.0 F. 68.0 F.
Mon Aug 31 20:08:06 2020 69.0 F. 66.9 F.
Mon Aug 31 21:08:05 2020 69.0 F. 66.0 F.
Mon Aug 31 22:08:06 2020 66.0 F. 64.0 F.
Mon Aug 31 23:08:05 2020 66.0 F. 64.0 F.
Tue Sep 1 00:08:06 2020 67.0 F. 64.9 F.
Tue Sep 1 01:08:05 2020 65.0 F. 63.0 F.
Tue Sep 1 02:08:05 2020 65.0 F. 63.0 F.
Tue Sep 1 03:08:04 2020 65.0 F. 63.0 F.
Tue Sep 1 04:08:05 2020 65.0 F. 63.0 F.
Tue Sep 1 05:08:04 2020 64.0 F. 63.0 F.
Tue Sep 1 06:08:04 2020 64.0 F. 63.0 F.
Tue Sep 1 07:08:05 2020 66.0 F. 64.9 F.
Tue Sep 1 08:08:05 2020 68.0 F. 66.9 F.
Tue Sep 1 09:08:04 2020 68.0 F. 66.9 F.
Tue Sep 1 10:08:10 2020 70.0 F. 68.0 F.
Tue Sep 1 11:08:05 2020 70.0 F. 68.0 F.
Tue Sep 1 12:08:05 2020 70.0 F. 68.0 F.
Tue Sep 1 13:08:04 2020 72.0 F. 69.8 F.
Tue Sep 1 14:08:05 2020 73.0 F. 69.8 F.
Tue Sep 1 15:08:05 2020 73.0 F. 69.8 F.
Tue Sep 1 16:08:06 2020 73.0 F. 71.6 F.
Tue Sep 1 17:08:06 2020 73.0 F. 69.8 F.
Tue Sep 1 18:08:05 2020 73.0 F. 69.8 F.
Tue Sep 1 19:08:05 2020 73.0 F. 71.6 F.
Tue Sep 1 20:08:05 2020 73.0 F. 71.6 F.
Tue Sep 1 21:08:05 2020 74.0 F. 72.0 F.
Tue Sep 1 22:08:06 2020 73.0 F. 71.1 F.
Tue Sep 1 23:08:05 2020 73.0 F. 71.1 F.
Wed Sep 2 00:08:05 2020 71.0 F. 70.0 F.
Wed Sep 2 01:08:05 2020 73.0 F. 71.1 F.
Wed Sep 2 02:08:04 2020 71.0 F. 70.0 F.
Wed Sep 2 03:08:04 2020 73.0 F. 72.0 F.
Wed Sep 2 04:08:05 2020 73.0 F. 72.0 F.
Wed Sep 2 05:08:05 2020 74.0 F. 72.0 F.
Wed Sep 2 06:08:05 2020 71.0 F. 69.1 F.
Wed Sep 2 07:08:05 2020 71.0 F. 69.1 F.
Wed Sep 2 08:08:05 2020 72.0 F. 69.8 F.
Wed Sep 2 09:08:05 2020 75.0 F. 71.6 F.
Wed Sep 2 10:08:04 2020 75.0 F. 71.6 F.
Wed Sep 2 11:08:05 2020 75.0 F. 71.6 F.
Wed Sep 2 12:08:05 2020 75.0 F. 73.4 F.
Wed Sep 2 13:08:05 2020 75.0 F. 73.4 F.
Wed Sep 2 14:08:05 2020 81.0 F. 71.6 F.
Wed Sep 2 15:08:05 2020 81.0 F. 71.6 F.
Wed Sep 2 16:08:05 2020 81.0 F. 71.6 F.
Wed Sep 2 17:08:05 2020 81.0 F. 71.6 F.
Wed Sep 2 18:08:04 2020 81.0 F. 71.6 F.
Wed Sep 2 19:08:05 2020 81.0 F. 71.6 F.
Wed Sep 2 20:08:05 2020 81.0 F. 71.6 F.
Wed Sep 2 21:08:05 2020 81.0 F. 71.6 F.
Wed Sep 2 22:08:05 2020 81.0 F. 71.6 F.
Wed Sep 2 23:08:05 2020 81.0 F. 71.6 F.
Thu Sep 3 00:08:06 2020 73.0 F. 71.6 F.
Thu Sep 3 01:08:05 2020 73.0 F. 71.6 F.
Thu Sep 3 02:08:05 2020 73.0 F. 73.4 F.
Thu Sep 3 03:08:05 2020 73.0 F. 71.6 F.
Thu Sep 3 04:08:05 2020 73.0 F. 71.6 F.
Thu Sep 3 05:08:05 2020 72.0 F. 69.8 F.
Thu Sep 3 06:10:15 2020
Thu Sep 3 07:08:05 2020 72.0 F. 71.6 F.
Thu Sep 3 08:08:05 2020 73.0 F. 71.6 F.
Thu Sep 3 09:10:18 2020
Thu Sep 3 10:08:05 2020 75.0 F. 71.6 F.
Thu Sep 3 11:08:05 2020 79.0 F. 71.6 F.
Thu Sep 3 12:08:05 2020 80.0 F. 71.1 F.
Thu Sep 3 13:08:05 2020 81.0 F. 71.1 F.
Thu Sep 3 14:08:05 2020 82.0 F. 71.1 F.
Thu Sep 3 15:08:05 2020 83.0 F. 72.0 F.
Thu Sep 3 16:08:05 2020 83.0 F. 72.0 F.
Thu Sep 3 17:08:04 2020 84.0 F. 72.0 F.
Thu Sep 3 18:08:04 2020 82.0 F. 71.1 F.
Thu Sep 3 19:08:05 2020 82.0 F. 71.1 F.
Thu Sep 3 20:08:05 2020 80.0 F. 72.0 F.
Thu Sep 3 21:08:05 2020 74.0 F. 71.1 F.
Thu Sep 3 22:08:06 2020 73.0 F. 72.0 F.
Thu Sep 3 23:08:05 2020 73.0 F. 72.0 F.
Fri Sep 4 00:08:04 2020 74.0 F. 72.0 F.
Fri Sep 4 01:08:04 2020 74.0 F. 72.0 F.
Fri Sep 4 02:08:05 2020 72.0 F. 59.0 F.
Fri Sep 4 03:08:05 2020 72.0 F. 59.0 F.
Fri Sep 4 04:08:05 2020 70.0 F. 59.0 F.
Fri Sep 4 05:08:05 2020 67.0 F. 55.9 F.
Fri Sep 4 06:08:05 2020 64.0 F. 55.0 F.
Fri Sep 4 07:08:05 2020 62.0 F. 55.9 F.
Fri Sep 4 08:08:05 2020 64.0 F. 55.9 F.
Fri Sep 4 09:08:05 2020 64.0 F. 55.9 F.
Fri Sep 4 10:08:05 2020 67.0 F. 55.9 F.
Fri Sep 4 11:08:04 2020 70.0 F. 55.0 F.
Fri Sep 4 12:08:04 2020 75.0 F. 54.0 F.
Fri Sep 4 13:08:04 2020 77.0 F. 53.1 F.
Fri Sep 4 14:08:05 2020 77.0 F. 53.1 F.
Fri Sep 4 15:08:05 2020 79.0 F. 52.0 F.
Fri Sep 4 16:08:05 2020 80.0 F. 52.0 F.
Fri Sep 4 17:08:06 2020 80.0 F. 52.0 F.
Fri Sep 4 18:08:05 2020 80.0 F. 52.0 F.
Fri Sep 4 19:08:05 2020 72.0 F. 59.0 F.
Fri Sep 4 20:08:05 2020 66.0 F. 60.1 F.
Fri Sep 4 21:08:05 2020 62.0 F. 59.0 F.
Fri Sep 4 22:08:06 2020 62.0 F. 59.0 F.
Fri Sep 4 23:08:05 2020 60.0 F. 57.9 F.
Sat Sep 5 00:08:05 2020 59.0 F. 57.9 F.
Sat Sep 5 01:08:05 2020 59.0 F. 57.0 F.
Sat Sep 5 02:08:04 2020 58.0 F. 57.0 F.
Sat Sep 5 03:08:04 2020 58.0 F. 57.0 F.
Sat Sep 5 04:08:05 2020 56.0 F. 55.0 F.
Sat Sep 5 05:08:05 2020 56.0 F. 55.0 F.
Sat Sep 5 06:08:05 2020 55.0 F. 54.0 F.
Sat Sep 5 07:08:05 2020 55.0 F. 54.0 F.
Sat Sep 5 08:08:05 2020 61.0 F. 59.0 F.
Sat Sep 5 09:08:05 2020 61.0 F. 59.0 F.
Sat Sep 5 10:08:05 2020 67.0 F. 59.0 F.
Sat Sep 5 11:08:04 2020 77.0 F. 57.9 F.
Sat Sep 5 12:08:04 2020 77.0 F. 57.9 F.
Sat Sep 5 13:08:04 2020 80.0 F. 57.0 F.
Sat Sep 5 14:08:05 2020 82.0 F. 55.9 F.
Sat Sep 5 15:08:05 2020 83.0 F. 59.0 F.
Sat Sep 5 16:08:05 2020 83.0 F. 59.0 F.
Sat Sep 5 17:08:05 2020 83.0 F. 59.0 F.
Sat Sep 5 18:08:05 2020 83.0 F. 59.0 F.
Sat Sep 5 19:08:04 2020 75.0 F. 64.9 F.
Sat Sep 5 20:08:19 2020 69.0 F. 63.0 F.
Sat Sep 5 21:08:05 2020 67.0 F. 63.0 F.
Sat Sep 5 22:08:04 2020 67.0 F. 63.0 F.
Sat Sep 5 23:08:05 2020 64.0 F. 61.0 F.
Sun Sep 6 00:08:05 2020 64.0 F. 61.0 F.
Sun Sep 6 01:08:05 2020 63.0 F. 60.1 F.
Sun Sep 6 02:08:05 2020 63.0 F. 60.1 F.
Sun Sep 6 03:08:05 2020 60.0 F. 59.0 F.
Sun Sep 6 04:08:04 2020 60.0 F. 59.0 F.
Sun Sep 6 05:08:05 2020 59.0 F. 57.0 F.
Sun Sep 6 06:08:05 2020 59.0 F. 57.0 F.
Sun Sep 6 07:08:05 2020 60.0 F. 57.9 F.
Sun Sep 6 08:08:04 2020 59.0 F. 57.0 F.
Sun Sep 6 09:08:05 2020 71.0 F. 64.9 F.
Sun Sep 6 10:08:04 2020 71.0 F. 64.9 F.
Sun Sep 6 11:08:05 2020 77.0 F. 64.9 F.
Sun Sep 6 12:08:05 2020 80.0 F. 64.9 F.
Sun Sep 6 13:08:05 2020 80.0 F. 66.9 F.
Sun Sep 6 14:08:05 2020 82.0 F. 68.0 F.
Sun Sep 6 15:08:04 2020 82.0 F. 69.1 F.
Sun Sep 6 16:08:05 2020 84.0 F. 71.1 F.
Sun Sep 6 17:08:05 2020 84.0 F. 70.0 F.
Sun Sep 6 18:08:05 2020 82.0 F. 69.1 F.
Sun Sep 6 19:08:04 2020 79.0 F. 69.1 F.
Sun Sep 6 20:08:05 2020 75.0 F. 68.0 F.
Sun Sep 6 21:08:05 2020 72.0 F. 66.9 F.
Sun Sep 6 22:08:05 2020 73.0 F. 66.9 F.
Sun Sep 6 23:08:04 2020 72.0 F. 66.0 F.
Mon Sep 7 00:08:10 2020 72.0 F. 66.0 F.
Mon Sep 7 01:08:05 2020 71.0 F. 66.0 F.
Mon Sep 7 02:08:06 2020 71.0 F. 66.0 F.
Mon Sep 7 03:08:05 2020 69.0 F. 64.9 F.
Mon Sep 7 04:08:06 2020 69.0 F. 64.9 F.
Mon Sep 7 05:08:04 2020 70.0 F. 64.0 F.
Mon Sep 7 06:08:04 2020 70.0 F. 64.0 F.
Mon Sep 7 07:08:05 2020 69.0 F. 64.0 F.
Mon Sep 7 08:08:05 2020 71.0 F. 66.0 F.
Mon Sep 7 09:08:05 2020 71.0 F. 66.0 F.
Mon Sep 7 10:08:05 2020 78.0 F. 68.0 F.
Mon Sep 7 11:08:05 2020 82.0 F. 69.1 F.
Mon Sep 7 12:08:05 2020 85.0 F. 71.1 F.
Mon Sep 7 13:08:06 2020 86.0 F. 70.0 F.
Mon Sep 7 14:08:05 2020 87.0 F. 70.0 F.
Mon Sep 7 15:08:04 2020 88.0 F. 71.1 F.
Mon Sep 7 16:08:05 2020 88.0 F. 71.1 F.
Mon Sep 7 17:08:05 2020 87.0 F. 71.1 F.
Mon Sep 7 18:08:05 2020 85.0 F. 70.0 F.
Mon Sep 7 19:08:05 2020 85.0 F. 70.0 F.
Mon Sep 7 20:08:05 2020 81.0 F. 70.0 F.
Mon Sep 7 21:08:05 2020 76.0 F. 70.0 F.
Mon Sep 7 22:08:05 2020 76.0 F. 69.1 F.
Mon Sep 7 23:08:05 2020 74.0 F. 68.0 F.
Tue Sep 8 00:08:05 2020 74.0 F. 68.0 F.
Tue Sep 8 01:08:05 2020 71.0 F. 66.9 F.
Tue Sep 8 02:08:04 2020 70.0 F. 66.0 F.
Tue Sep 8 03:08:04 2020 68.0 F. 64.9 F.
Tue Sep 8 04:08:05 2020 68.0 F. 64.9 F.
Tue Sep 8 05:08:10 2020 68.0 F. 64.9 F.
Tue Sep 8 06:08:04 2020 68.0 F. 64.9 F.
Tue Sep 8 07:08:05 2020 67.0 F. 64.0 F.
Tue Sep 8 13:08:05 2020 83.0 F. 70.0 F.
Tue Sep 8 14:08:05 2020 87.0 F. 69.1 F.
Tue Sep 8 15:08:05 2020 87.0 F. 69.1 F.
Tue Sep 8 16:08:42 2020
Tue Sep 8 17:08:05 2020 86.0 F. 68.0 F.
Tue Sep 8 18:08:05 2020 83.0 F. 69.1 F.
Tue Sep 8 19:08:05 2020 83.0 F. 69.1 F.
Tue Sep 8 20:08:05 2020 73.0 F. 69.1 F.
Tue Sep 8 21:08:05 2020 71.0 F. 69.1 F.
Tue Sep 8 22:08:10 2020 70.0 F. 68.0 F.
Tue Sep 8 23:08:05 2020 70.0 F. 68.0 F.
Wed Sep 9 00:08:05 2020 68.0 F. 66.9 F.
Wed Sep 9 01:08:04 2020 68.0 F. 66.0 F.
Wed Sep 9 02:08:06 2020 67.0 F. 64.9 F.
Wed Sep 9 03:08:05 2020 67.0 F. 64.9 F.
Wed Sep 9 04:08:04 2020 67.0 F. 64.9 F.
Wed Sep 9 05:08:05 2020 64.0 F. 63.0 F.
Wed Sep 9 06:08:04 2020 64.0 F. 63.0 F.
Wed Sep 9 07:08:05 2020 63.0 F. 62.1 F.
Wed Sep 9 08:08:05 2020 63.0 F. 62.1 F.
Wed Sep 9 09:08:04 2020 68.0 F. 66.9 F.
Wed Sep 9 10:08:40 2020
Wed Sep 9 11:08:05 2020 78.0 F. 70.0 F.
Wed Sep 9 12:08:05 2020 85.0 F. 69.1 F.
Wed Sep 9 13:08:05 2020 84.0 F. 68.0 F.
Wed Sep 9 15:08:12 2020 86.0 F. 66.9 F.
Wed Sep 9 16:08:04 2020 88.0 F. 66.0 F.
Wed Sep 9 17:08:05 2020 88.0 F. 66.9 F.
Wed Sep 9 18:08:04 2020 83.0 F. 70.0 F.
Wed Sep 9 19:08:05 2020 80.0 F. 72.0 F.
Wed Sep 9 20:08:04 2020 80.0 F. 72.0 F.
Wed Sep 9 21:08:05 2020 72.0 F. 69.1 F.
Wed Sep 9 22:08:05 2020 69.0 F. 66.9 F.
Wed Sep 9 23:08:05 2020 69.0 F. 66.9 F.
Thu Sep 10 00:08:05 2020 69.0 F. 66.9 F.
Thu Sep 10 01:08:04 2020 66.0 F. 64.9 F.
Thu Sep 10 02:08:05 2020 67.0 F. 66.0 F.
Thu Sep 10 03:08:05 2020 66.0 F. 66.0 F.
Thu Sep 10 04:08:05 2020 67.0 F. 64.9 F.
Thu Sep 10 05:08:04 2020 65.0 F. 64.0 F.
Thu Sep 10 06:08:05 2020 64.0 F. 63.0 F.
Thu Sep 10 07:08:10 2020 64.0 F. 63.0 F.
Thu Sep 10 08:08:05 2020 64.0 F. 63.0 F.
Thu Sep 10 09:08:04 2020 71.0 F. 69.1 F.
Thu Sep 10 10:08:05 2020 77.0 F. 70.0 F.
Thu Sep 10 11:08:11 2020 82.0 F. 70.0 F.
Thu Sep 10 12:08:05 2020 82.0 F. 70.0 F.
Thu Sep 10 13:08:04 2020 86.0 F. 71.1 F.
Thu Sep 10 14:08:05 2020 87.0 F. 66.0 F.
Thu Sep 10 15:08:05 2020 89.0 F. 66.9 F.
Thu Sep 10 16:08:04 2020 88.0 F. 66.0 F.
Thu Sep 10 17:08:05 2020 89.0 F. 64.9 F.
Thu Sep 10 18:08:06 2020 84.0 F. 71.1 F.
Thu Sep 10 19:08:11 2020 81.0 F. 73.0 F.
Thu Sep 10 20:08:07 2020 81.0 F. 73.0 F.
Thu Sep 10 21:08:05 2020 76.0 F. 70.0 F.
Thu Sep 10 22:08:05 2020 75.0 F. 70.0 F.
Thu Sep 10 23:08:05 2020 72.0 F. 69.1 F.
Fri Sep 11 00:08:05 2020 71.0 F. 69.1 F.
Fri Sep 11 01:08:05 2020 71.0 F. 69.1 F.
Fri Sep 11 02:08:04 2020 69.0 F. 66.9 F.
Fri Sep 11 03:08:05 2020 69.0 F. 66.9 F.
Fri Sep 11 04:08:04 2020 69.0 F. 66.9 F.
Fri Sep 11 05:08:04 2020 68.0 F. 66.0 F.
Fri Sep 11 06:08:05 2020 68.0 F. 66.0 F.
Fri Sep 11 07:08:05 2020 69.0 F. 66.9 F.
Fri Sep 11 08:08:05 2020 70.0 F. 68.0 F.
Fri Sep 11 09:08:05 2020 71.0 F. 68.0 F.
Fri Sep 11 10:08:04 2020 71.0 F. 68.0 F.
Fri Sep 11 11:08:05 2020 77.0 F. 70.0 F.
Fri Sep 11 12:08:05 2020 82.0 F. 70.0 F.
Fri Sep 11 13:08:05 2020 85.0 F. 71.1 F.
Fri Sep 11 14:08:04 2020 85.0 F. 71.1 F.
Fri Sep 11 15:08:05 2020 85.0 F. 69.1 F.
Fri Sep 11 16:08:05 2020 84.0 F. 70.0 F.
Fri Sep 11 17:08:05 2020 83.0 F. 69.1 F.
Fri Sep 11 18:08:04 2020 83.0 F. 70.0 F.
Fri Sep 11 19:10:18 2020
Fri Sep 11 20:08:04 2020 74.0 F. 70.0 F.
Fri Sep 11 21:08:04 2020 74.0 F. 70.0 F.
Fri Sep 11 22:08:06 2020 71.0 F. 69.1 F.
Fri Sep 11 23:08:05 2020 71.0 F. 68.0 F.
Sat Sep 12 00:08:05 2020 70.0 F. 68.0 F.
Sat Sep 12 01:08:04 2020 70.0 F. 68.0 F.
Sat Sep 12 02:08:05 2020 70.0 F. 68.0 F.
Sat Sep 12 03:08:05 2020 69.0 F. 66.9 F.
Sat Sep 12 04:08:04 2020 68.0 F. 66.9 F.
Sat Sep 12 05:08:06 2020 69.0 F. 68.0 F.
Sat Sep 12 06:08:04 2020 71.0 F. 69.1 F.
Sat Sep 12 07:08:05 2020 71.0 F. 69.1 F.
Sat Sep 12 08:08:06 2020 72.0 F. 70.0 F.
Sat Sep 12 09:08:05 2020 73.0 F. 71.1 F.
Sat Sep 12 10:08:05 2020 73.0 F. 71.1 F.
Sat Sep 12 11:08:05 2020 80.0 F. 72.0 F.
Sat Sep 12 12:08:05 2020 80.0 F. 72.0 F.
Sat Sep 12 13:08:05 2020 87.0 F. 71.1 F.
Sat Sep 12 14:08:05 2020 87.0 F. 70.0 F.
Sat Sep 12 15:08:04 2020 86.0 F. 69.1 F.
Sat Sep 12 16:08:06 2020 83.0 F. 72.0 F.
Sat Sep 12 17:08:05 2020 83.0 F. 73.9 F.
Sat Sep 12 18:08:05 2020 77.0 F. 71.1 F.
Sat Sep 12 19:08:06 2020 72.0 F. 70.0 F.
Sat Sep 12 20:08:06 2020 71.0 F. 70.0 F.
Sat Sep 12 21:08:05 2020 72.0 F. 69.1 F.
Sat Sep 12 22:08:05 2020 72.0 F. 69.1 F.
Sat Sep 12 23:08:05 2020 72.0 F. 69.1 F.
Sun Sep 13 00:08:05 2020 70.0 F. 69.1 F.
Sun Sep 13 01:08:06 2020 69.0 F. 66.9 F.
Sun Sep 13 02:08:05 2020 70.0 F. 69.1 F.
Sun Sep 13 03:08:05 2020 70.0 F. 69.1 F.
Sun Sep 13 04:08:04 2020 71.0 F. 69.1 F.
Sun Sep 13 05:08:05 2020 70.0 F. 69.1 F.
Sun Sep 13 06:08:05 2020 70.0 F. 68.0 F.
Sun Sep 13 07:08:04 2020 70.0 F. 68.0 F.
Sun Sep 13 08:08:05 2020 70.0 F. 68.0 F.
Sun Sep 13 09:08:05 2020 71.0 F. 68.0 F.
Sun Sep 13 10:08:05 2020 73.0 F. 66.9 F.
Sun Sep 13 11:08:05 2020 75.0 F. 66.9 F.
Sun Sep 13 12:08:05 2020 77.0 F. 66.9 F.
Sun Sep 13 13:08:05 2020 78.0 F. 66.9 F.
Sun Sep 13 14:08:04 2020 80.0 F. 66.9 F.
Sun Sep 13 15:08:06 2020 80.0 F. 66.9 F.
Sun Sep 13 16:08:05 2020 80.0 F. 66.9 F.
Sun Sep 13 17:08:05 2020 80.0 F. 66.9 F.
Sun Sep 13 18:08:05 2020 75.0 F. 64.9 F.
Sun Sep 13 19:08:05 2020 71.0 F. 64.9 F.
Sun Sep 13 20:08:05 2020 69.0 F. 64.0 F.
Sun Sep 13 21:08:05 2020 69.0 F. 64.0 F.
Sun Sep 13 22:08:05 2020 67.0 F. 63.0 F.
Sun Sep 13 23:08:05 2020 67.0 F. 63.0 F.
Mon Sep 14 00:08:05 2020 66.0 F. 63.0 F.
Mon Sep 14 01:08:05 2020 64.0 F. 62.1 F.
Mon Sep 14 02:08:04 2020 63.0 F. 61.0 F.
Mon Sep 14 03:08:05 2020 63.0 F. 61.0 F.
Mon Sep 14 04:08:05 2020 60.0 F. 59.0 F.
Mon Sep 14 05:08:05 2020 61.0 F. 59.0 F.
Mon Sep 14 06:08:05 2020 61.0 F. 57.9 F.
Mon Sep 14 07:08:05 2020 61.0 F. 57.9 F.
Mon Sep 14 08:08:05 2020 63.0 F. 60.1 F.
Mon Sep 14 09:08:06 2020 67.0 F. 62.1 F.
Mon Sep 14 10:08:04 2020 67.0 F. 62.1 F.
Mon Sep 14 11:08:05 2020 71.0 F. 62.1 F.
Mon Sep 14 12:08:05 2020 78.0 F. 63.0 F.
Mon Sep 14 13:08:05 2020 80.0 F. 62.1 F.
Mon Sep 14 14:08:04 2020 81.0 F. 62.1 F.
Mon Sep 14 15:08:04 2020 81.0 F. 62.1 F.
Mon Sep 14 16:08:07 2020 82.0 F. 61.0 F.
Mon Sep 14 17:08:06 2020 82.0 F. 60.1 F.
Mon Sep 14 18:08:05 2020 78.0 F. 55.9 F.
Mon Sep 14 19:08:05 2020 71.0 F. 57.9 F.
Mon Sep 14 20:08:05 2020 71.0 F. 57.9 F.
Mon Sep 14 21:08:05 2020 68.0 F. 57.9 F.
Mon Sep 14 22:08:05 2020 64.0 F. 57.9 F.
Mon Sep 14 23:08:06 2020 64.0 F. 57.9 F.
Tue Sep 15 00:08:05 2020 61.0 F. 57.0 F.
Tue Sep 15 01:08:04 2020 61.0 F. 57.0 F.
Tue Sep 15 02:08:05 2020 59.0 F. 57.0 F.
Tue Sep 15 03:08:05 2020 59.0 F. 57.0 F.
Tue Sep 15 04:08:05 2020 59.0 F. 57.0 F.
Tue Sep 15 05:08:04 2020 59.0 F. 57.0 F.
Tue Sep 15 06:08:05 2020 58.0 F. 55.9 F.
Tue Sep 15 07:08:06 2020 58.0 F. 55.9 F.
Tue Sep 15 08:08:07 2020 61.0 F. 57.9 F.
Tue Sep 15 09:08:05 2020 61.0 F. 57.9 F.
Tue Sep 15 10:08:05 2020 61.0 F. 57.9 F.
Tue Sep 15 11:08:05 2020 73.0 F. 62.1 F.
Tue Sep 15 12:08:04 2020 73.0 F. 62.1 F.
Tue Sep 15 13:08:05 2020 77.0 F. 62.1 F.
Tue Sep 15 14:08:05 2020 79.0 F. 61.0 F.
Tue Sep 15 15:08:05 2020 79.0 F. 60.1 F.
Tue Sep 15 16:08:05 2020 78.0 F. 62.1 F.
Tue Sep 15 17:08:05 2020 78.0 F. 62.1 F.
Tue Sep 15 18:08:05 2020 76.0 F. 63.0 F.
Tue Sep 15 19:08:05 2020 76.0 F. 63.0 F.
Tue Sep 15 20:08:05 2020 65.0 F. 59.0 F.
Tue Sep 15 21:08:05 2020 62.0 F. 57.9 F.
Tue Sep 15 22:08:05 2020 62.0 F. 57.9 F.
Tue Sep 15 23:08:05 2020 61.0 F. 57.9 F.
Wed Sep 16 00:08:06 2020 60.0 F. 57.0 F.
Wed Sep 16 01:08:14 2020 57.0 F. 55.0 F.
Wed Sep 16 02:08:04 2020 57.0 F. 55.0 F.
Wed Sep 16 03:08:05 2020 58.0 F. 55.9 F.
Wed Sep 16 04:08:05 2020 57.0 F. 55.9 F.
Wed Sep 16 05:08:04 2020 57.0 F. 55.0 F.
Wed Sep 16 06:08:04 2020 58.0 F. 55.9 F.
Wed Sep 16 07:08:05 2020 56.0 F. 54.0 F.
Wed Sep 16 08:08:05 2020 56.0 F. 54.0 F.
Wed Sep 16 09:08:10 2020 63.0 F. 59.0 F.
Wed Sep 16 10:08:04 2020 63.0 F. 59.0 F.
Wed Sep 16 11:08:05 2020 73.0 F. 63.0 F.
Wed Sep 16 12:08:05 2020 73.0 F. 63.0 F.
Wed Sep 16 13:08:05 2020 79.0 F. 66.0 F.
Wed Sep 16 14:08:05 2020 79.0 F. 66.0 F.
Wed Sep 16 15:08:05 2020 79.0 F. 66.0 F.
Wed Sep 16 16:08:05 2020 82.0 F. 66.2 F.
Wed Sep 16 17:08:05 2020 82.0 F. 66.2 F.
Wed Sep 16 18:08:05 2020 81.0 F. 62.6 F.
Wed Sep 16 19:08:25 2020
Wed Sep 16 20:08:05 2020 79.0 F. 62.6 F.
Wed Sep 16 21:08:05 2020 72.0 F. 64.0 F.
Wed Sep 16 22:08:05 2020 65.0 F. 62.1 F.
Wed Sep 16 23:08:04 2020 65.0 F. 61.0 F.
Thu Sep 17 00:08:05 2020 65.0 F. 61.0 F.
Thu Sep 17 01:08:04 2020 63.0 F. 61.0 F.
Thu Sep 17 02:08:05 2020 60.0 F. 57.9 F.
Thu Sep 17 03:08:04 2020 60.0 F. 59.0 F.
Thu Sep 17 04:08:04 2020 60.0 F. 59.0 F.
Thu Sep 17 05:08:04 2020 54.0 F. 54.0 F.
Thu Sep 17 06:08:06 2020 56.0 F. 55.0 F.
Thu Sep 17 07:08:05 2020 56.0 F. 54.0 F.
Thu Sep 17 08:08:04 2020 56.0 F. 54.0 F.
Thu Sep 17 09:08:04 2020 60.0 F. 57.9 F.
Thu Sep 17 10:08:04 2020 71.0 F. 62.1 F.
Thu Sep 17 11:08:04 2020 75.0 F. 62.1 F.
Thu Sep 17 12:08:05 2020 75.0 F. 62.1 F.
Thu Sep 17 13:08:04 2020 79.0 F. 63.0 F.
Thu Sep 17 14:08:39 2020
Thu Sep 17 15:08:04 2020 83.0 F. 64.9 F.
Thu Sep 17 16:08:06 2020 79.0 F. 64.9 F.
Thu Sep 17 17:08:05 2020 79.0 F. 64.9 F.
Thu Sep 17 18:08:04 2020 81.0 F. 64.9 F.
Thu Sep 17 19:08:05 2020 77.0 F. 64.0 F.
Thu Sep 17 20:08:04 2020 75.0 F. 64.0 F.
Thu Sep 17 21:08:05 2020 69.0 F. 61.0 F.
Thu Sep 17 22:08:05 2020 69.0 F. 61.0 F.
Thu Sep 17 23:08:04 2020 67.0 F. 61.0 F.
Fri Sep 18 00:08:05 2020 65.0 F. 59.0 F.
Fri Sep 18 01:08:05 2020 64.0 F. 57.9 F.
Fri Sep 18 02:08:05 2020 62.0 F. 55.9 F.
Fri Sep 18 03:08:05 2020 60.0 F. 54.0 F.
Fri Sep 18 04:08:04 2020 58.0 F. 53.1 F.
Fri Sep 18 05:08:05 2020 56.0 F. 52.0 F.
Fri Sep 18 06:08:05 2020 56.0 F. 52.0 F.
Fri Sep 18 07:08:05 2020 53.0 F. 50.0 F.
Fri Sep 18 08:08:05 2020 53.0 F. 50.0 F.
Fri Sep 18 09:08:04 2020 56.0 F. 50.0 F.
Fri Sep 18 10:08:06 2020 64.0 F. 53.1 F.
Fri Sep 18 11:08:04 2020 67.0 F. 52.0 F.
Fri Sep 18 12:08:05 2020 70.0 F. 51.1 F.
Fri Sep 18 13:08:05 2020 71.0 F. 51.1 F.
Fri Sep 18 14:08:05 2020 71.0 F. 51.1 F.
Fri Sep 18 15:08:09 2020 72.0 F. 48.0 F.
Fri Sep 18 16:08:05 2020 73.0 F. 50.0 F.
Fri Sep 18 17:08:04 2020 73.0 F. 50.0 F.
Fri Sep 18 18:08:05 2020 69.0 F. 48.0 F.
Fri Sep 18 19:08:05 2020 63.0 F. 51.1 F.
Fri Sep 18 20:08:05 2020 63.0 F. 51.1 F.
Fri Sep 18 21:08:05 2020 60.0 F. 48.9 F.
Fri Sep 18 22:08:04 2020 58.0 F. 48.0 F.
Fri Sep 18 23:08:05 2020 56.0 F. 46.0 F.
Sat Sep 19 00:08:04 2020 54.0 F. 46.0 F.
Sat Sep 19 01:08:05 2020 51.0 F. 46.0 F.
Sat Sep 19 02:08:05 2020 50.0 F. 45.0 F.
Sat Sep 19 03:08:06 2020 49.0 F. 44.1 F.
Sat Sep 19 04:08:04 2020 49.0 F. 44.1 F.
Sat Sep 19 05:08:04 2020 45.0 F. 42.1 F.
Sat Sep 19 06:08:05 2020 44.0 F. 42.1 F.
Sat Sep 19 07:08:05 2020 44.0 F. 42.1 F.
Sat Sep 19 08:08:06 2020 49.0 F. 43.0 F.
Sat Sep 19 09:08:04 2020 53.0 F. 43.0 F.
Sat Sep 19 10:08:04 2020 58.0 F. 45.0 F.
Sat Sep 19 11:08:05 2020 63.0 F. 44.1 F.
Sat Sep 19 12:08:05 2020 66.0 F. 42.1 F.
Sat Sep 19 13:08:40 2020
Sat Sep 19 14:08:05 2020 70.0 F. 42.1 F.
Sat Sep 19 15:08:05 2020 72.0 F. 41.0 F.
Sat Sep 19 16:08:05 2020 71.0 F. 41.0 F.
Sat Sep 19 17:08:04 2020 71.0 F. 41.0 F.
Sat Sep 19 18:08:05 2020 68.0 F. 43.0 F.
Sat Sep 19 19:08:05 2020 60.0 F. 48.9 F.
Sat Sep 19 20:08:10 2020 60.0 F. 48.9 F.
Sat Sep 19 21:08:04 2020 53.0 F. 48.9 F.
Sat Sep 19 22:08:05 2020 50.0 F. 46.9 F.
Sat Sep 19 23:08:05 2020 50.0 F. 46.0 F.
Sun Sep 20 00:08:05 2020 46.0 F. 44.1 F.
Sun Sep 20 01:08:06 2020 46.0 F. 44.1 F.
Sun Sep 20 02:08:05 2020 47.0 F. 44.1 F.
Sun Sep 20 03:08:04 2020 46.0 F. 44.1 F.
Sun Sep 20 04:08:05 2020 46.0 F. 44.1 F.
Sun Sep 20 05:08:04 2020 43.0 F. 42.1 F.
Sun Sep 20 06:08:05 2020 44.0 F. 42.1 F.
Sun Sep 20 07:08:05 2020 44.0 F. 42.1 F.
Sun Sep 20 08:08:05 2020 49.0 F. 46.0 F.
Sun Sep 20 09:08:05 2020 49.0 F. 46.0 F.
Sun Sep 20 10:08:32 2020
Sun Sep 20 11:08:06 2020 67.0 F. 51.1 F.
Sun Sep 20 12:08:05 2020 72.0 F. 48.9 F.
Sun Sep 20 13:08:05 2020 74.0 F. 50.0 F.
Sun Sep 20 14:08:29 2020 74.0 F. 48.0 F.
Sun Sep 20 15:08:07 2020 74.0 F. 48.0 F.
Sun Sep 20 16:08:04 2020 75.0 F. 46.0 F.
Sun Sep 20 17:08:05 2020 76.0 F. 45.0 F.
Sun Sep 20 18:08:05 2020 76.0 F. 45.0 F.
Sun Sep 20 19:08:06 2020 73.0 F. 50.0 F.
Sun Sep 20 20:08:05 2020 56.0 F. 51.1 F.
Sun Sep 20 21:08:06 2020 54.0 F. 51.1 F.
Sun Sep 20 22:08:05 2020 54.0 F. 51.1 F.
Sun Sep 20 23:08:05 2020 52.0 F. 48.9 F.
Mon Sep 21 00:08:05 2020 50.0 F. 48.0 F.
Mon Sep 21 01:08:05 2020 50.0 F. 48.9 F.